GFSWCAN_prec_precacc_147.txt.gz
Total_Precipitation_Accumulation
1.72 1.76 1.80 1.65 1.38 1.39 1.47 1.44 1.35 1.56 1.34 1.14 0.99 0.88 1.25 1.32 1.50 2.07 1.73 1.49 2.49 3.00 1.16 0.84 0.60 0.66 0.59 0.62 0.90 0.90 1.48 1.49 1.38 1.31 1.06 0.98 0.96 0.47 0.70 1.13 0.67 0.80 0.88 0.91 1.07 1.44 0.90 0.11 0.28 0.60 0.79 0.43 0.29 0.37
1.73 1.85 1.47 1.28 1.02 1.25 1.46 1.34 1.18 1.10 1.59 1.24 1.02 0.95 1.37 1.66 1.69 2.07 1.98 1.39 1.91 2.88 1.59 0.83 0.51 0.43 0.35 0.34 0.47 0.72 1.06 1.11 1.31 1.12 0.71 0.64 0.67 0.59 0.68 0.90 0.88 1.44 1.19 1.27 0.99 0.95 0.55 0.30 0.41 0.48 0.40 0.41 0.44 0.59
1.50 1.73 1.37 1.08 1.02 1.05 1.26 1.21 1.20 0.98 1.16 1.22 1.03 1.05 1.63 1.99 1.86 2.14 1.91 1.45 3.02 3.39 2.11 1.06 0.73 0.36 0.27 0.35 0.33 0.83 0.50 0.75 1.21 1.10 1.38 1.06 0.86 0.49 0.48 0.72 0.69 0.59 0.54 0.96 0.91 0.67 0.39 0.53 0.44 0.25 0.25 0.28 0.30 0.31
1.43 1.73 1.30 1.01 1.18 1.08 1.06 0.75 0.88 1.03 0.95 1.25 1.52 1.45 1.78 2.02 1.93 2.50 2.43 1.99 3.33 2.66 2.33 1.39 0.87 0.50 0.39 0.58 0.34 0.39 0.34 0.38 0.71 1.05 1.60 1.41 0.96 0.75 0.66 0.67 0.60 0.50 0.75 0.69 1.01 0.97 0.70 0.66 0.94 0.62 0.44 0.32 0.32 0.33
1.47 1.36 1.13 1.27 1.22 0.84 0.79 0.49 0.53 0.79 0.76 1.23 1.56 1.74 2.08 2.34 2.30 3.28 3.01 2.65 2.47 2.23 2.11 1.69 0.80 0.70 0.45 0.79 0.50 0.57 0.55 0.60 1.02 1.11 1.14 0.81 0.60 0.93 0.88 0.84 0.52 0.39 0.97 0.94 0.89 1.13 1.25 1.34 0.88 0.71 0.79 0.61 0.44 0.22
1.42 1.01 1.34 1.61 1.10 0.74 0.51 0.46 0.51 0.58 0.73 1.18 1.47 1.81 2.33 2.61 3.63 5.75 6.96 3.96 2.24 2.10 2.60 2.03 1.07 0.76 0.69 1.12 1.04 0.63 0.95 0.99 1.31 1.61 0.90 0.46 0.45 1.08 1.05 1.09 0.67 0.46 0.46 0.65 0.99 1.04 1.08 0.96 0.61 0.38 0.29 0.34 0.34 0.22
1.33 1.46 1.78 1.58 0.89 0.49 0.38 0.39 0.47 0.59 0.86 1.16 1.33 1.57 1.92 2.20 2.81 3.89 3.16 1.86 1.55 2.35 3.57 2.40 1.53 1.02 1.08 1.60 1.86 1.56 1.42 1.69 1.92 1.86 1.11 0.58 0.51 0.84 1.03 0.90 0.63 0.42 0.51 0.50 0.65 0.59 0.41 0.33 0.27 0.15 0.06 0.04 0.02 0.02
1.86 1.85 1.47 1.01 0.60 0.50 0.39 0.46 0.57 0.76 0.93 1.12 1.45 1.61 1.95 2.41 2.92 2.49 1.72 1.76 1.63 2.56 2.32 1.76 1.52 1.68 1.45 2.05 2.18 1.73 1.89 2.04 1.92 1.72 1.12 0.72 0.79 1.15 1.13 0.65 0.37 0.27 0.41 0.36 0.35 0.25 0.18 0.12 0.05 0.03 0.01 0.01 0.01 0.01
2.17 1.50 0.94 0.80 0.62 0.51 0.45 0.58 0.74 1.02 1.10 1.67 2.11 2.75 3.91 3.29 2.89 1.90 1.63 2.24 2.04 1.86 1.44 0.71 1.07 2.31 2.16 2.03 1.81 1.54 1.79 2.02 1.52 1.05 0.79 0.98 1.28 1.30 0.78 0.35 0.31 0.25 0.30 0.32 0.21 0.09 0.05 0.06 0.05 0.04 0.02 0.01 0.01 0.02
1.46 1.02 0.67 0.62 0.58 0.69 0.77 0.92 1.19 1.36 1.81 2.20 2.65 3.42 3.58 2.25 1.91 2.14 3.08 3.36 3.15 1.78 1.11 0.68 0.57 1.50 2.18 2.12 1.68 1.43 1.20 1.15 1.15 0.86 0.92 1.25 0.99 0.50 0.21 0.21 0.22 0.17 0.20 0.21 0.18 0.17 0.11 0.09 0.05 0.03 0.03 0.04 0.05 0.09
0.80 0.71 0.59 0.60 0.61 0.65 0.79 0.93 1.57 1.88 1.91 1.74 2.09 2.77 2.33 2.28 2.27 2.50 2.43 1.81 1.55 1.04 0.42 0.45 0.56 1.24 1.40 2.07 1.57 1.17 1.30 0.87 0.68 0.79 0.78 1.08 0.62 0.36 0.12 0.09 0.11 0.15 0.19 0.23 0.25 0.26 0.23 0.19 0.14 0.09 0.13 0.16 0.15 0.15
0.84 0.67 0.65 0.63 0.63 0.75 0.88 1.13 1.48 0.96 1.11 1.02 1.61 1.92 2.46 2.32 1.95 1.50 1.17 0.85 0.63 0.49 0.31 0.42 0.71 1.42 1.26 1.63 1.68 1.40 1.28 1.12 1.09 0.79 0.60 0.84 0.59 0.27 0.20 0.16 0.13 0.16 0.21 0.28 0.26 0.24 0.26 0.25 0.25 0.21 0.21 0.20 0.21 0.25
0.66 0.67 0.73 0.61 0.61 0.69 0.77 1.00 1.03 0.97 1.19 1.33 1.11 1.19 1.40 1.12 1.15 0.77 0.54 0.50 0.57 0.43 0.37 0.50 0.99 1.57 1.32 1.74 1.69 1.23 1.55 1.36 1.09 1.57 1.08 0.62 0.29 0.20 0.19 0.21 0.24 0.25 0.24 0.29 0.33 0.33 0.29 0.29 0.27 0.26 0.29 0.38 0.40 0.54
0.53 0.60 0.78 0.80 0.86 0.96 1.21 1.45 1.82 1.66 1.39 1.11 0.97 0.83 1.09 0.81 0.64 0.60 0.66 0.86 0.50 0.62 0.66 1.05 1.17 1.46 1.52 1.57 1.29 0.98 1.16 1.09 1.04 0.93 0.73 0.45 0.39 0.35 0.31 0.30 0.27 0.38 0.42 0.44 0.50 0.48 0.53 0.58 0.74 0.90 0.96 1.05 0.86 0.96
0.57 0.81 1.05 1.07 1.13 1.20 1.36 1.57 1.61 1.18 0.95 1.07 0.98 1.06 0.69 0.96 0.81 0.78 0.64 0.45 0.33 0.64 1.23 1.42 1.41 1.24 1.02 1.53 0.93 0.72 0.79 0.87 0.77 0.94 0.60 0.63 0.58 0.54 0.58 0.63 0.65 0.74 0.81 0.89 0.97 0.90 0.99 0.96 0.82 1.06 1.19 1.08 0.86 0.85
0.60 1.24 1.25 1.16 1.19 1.11 1.27 1.27 1.22 1.08 1.02 1.10 1.15 1.01 0.79 0.77 0.83 0.71 0.58 0.47 0.50 1.22 1.40 1.37 1.27 0.92 0.73 0.48 0.50 0.50 0.59 0.94 0.68 0.56 0.67 0.66 0.73 0.87 0.92 0.96 1.03 1.05 1.00 0.99 0.97 0.86 0.85 0.80 0.70 0.78 0.81 0.75 0.72 0.55
0.87 1.44 1.26 1.03 0.90 0.89 1.00 0.99 0.95 0.83 0.85 0.84 1.09 1.19 1.04 0.88 0.98 0.94 0.78 0.63 0.63 1.13 1.23 0.78 0.71 0.68 0.61 0.27 0.25 0.35 0.65 0.89 0.90 0.94 0.89 0.86 0.93 1.06 1.08 1.01 0.98 0.82 0.72 0.69 0.64 0.61 0.62 0.60 0.42 0.30 0.34 0.44 0.36 0.33
0.76 0.72 0.69 0.61 0.58 0.71 0.59 0.37 0.51 0.45 0.50 0.84 0.89 1.15 0.83 1.01 1.00 0.87 0.83 0.73 0.79 0.79 0.76 0.71 0.67 0.47 0.54 0.51 0.64 0.79 0.91 1.06 1.03 0.93 0.95 1.05 0.96 0.96 0.95 0.82 0.84 0.67 0.54 0.52 0.43 0.41 0.39 0.31 0.23 0.27 0.25 0.23 0.19 0.23
0.78 0.63 0.59 0.44 0.39 0.53 0.54 0.38 0.20 0.28 0.69 0.73 0.76 0.61 0.51 0.67 0.63 0.62 0.49 0.46 0.33 0.21 0.21 0.20 0.26 0.47 0.69 0.79 0.83 0.90 0.89 0.68 0.69 0.70 0.75 0.85 0.83 0.80 0.80 0.72 0.65 0.58 0.43 0.36 0.25 0.24 0.28 0.26 0.28 0.25 0.21 0.16 0.19 0.22
0.84 0.64 0.52 0.40 0.41 0.39 0.32 0.22 0.10 0.17 0.51 0.59 0.55 0.31 0.29 0.42 0.30 0.16 0.09 0.06 0.04 0.05 0.14 0.31 0.71 0.89 0.83 0.92 0.71 0.67 0.65 0.56 0.42 0.40 0.59 0.73 0.73 0.59 0.62 0.49 0.44 0.38 0.29 0.29 0.28 0.25 0.22 0.23 0.24 0.19 0.18 0.17 0.17 0.17
0.80 0.50 0.21 0.19 0.33 0.16 0.17 0.13 0.19 0.16 0.27 0.36 0.30 0.13 0.23 0.10 0.09 0.09 0.06 0.02 0.10 0.22 0.60 0.86 0.83 0.93 0.67 0.65 0.58 0.50 0.56 0.49 0.51 0.32 0.34 0.43 0.51 0.34 0.40 0.43 0.32 0.25 0.22 0.27 0.26 0.28 0.24 0.21 0.18 0.14 0.14 0.16 0.16 0.14
0.35 0.17 0.14 0.17 0.15 0.07 0.14 0.03 0.09 0.09 0.06 0.11 0.09 0.05 0.08 0.09 0.08 0.04 0.04 0.10 0.41 0.70 0.71 0.60 0.57 0.43 0.30 0.35 0.36 0.27 0.35 0.28 0.31 0.35 0.36 0.32 0.36 0.38 0.44 0.45 0.30 0.31 0.31 0.27 0.22 0.20 0.17 0.14 0.11 0.10 0.10 0.12 0.11 0.09
0.06 0.07 0.07 0.06 0.16 0.06 0.14 0.08 0.07 0.09 0.05 0.06 0.04 0.05 0.06 0.05 0.04 0.01 0.09 0.22 0.62 0.79 0.51 0.26 0.26 0.20 0.25 0.33 0.20 0.20 0.22 0.19 0.25 0.33 0.36 0.34 0.34 0.33 0.28 0.26 0.23 0.18 0.15 0.13 0.07 0.05 0.06 0.03 0.04 0.07 0.09 0.12 0.14 0.15
0.06 0.08 0.08 0.11 0.10 0.08 0.09 0.09 0.01 0.02 0.03 0.03 0.03 0.06 0.07 0.05 0.02 0.03 0.13 0.31 0.57 0.45 0.27 0.29 0.19 0.17 0.19 0.19 0.21 0.27 0.32 0.25 0.22 0.24 0.24 0.16 0.16 0.16 0.09 0.08 0.06 0.04 0.03 0.02 0.01 0.04 0.04 0.05 0.04 0.08 0.10 0.11 0.13 0.12
0.16 0.10 0.11 0.15 0.08 0.03 0.04 0.05 0.04 0.03 0.04 0.03 0.04 0.07 0.05 0.03 0.05 0.05 0.10 0.33 0.30 0.32 0.33 0.31 0.24 0.21 0.24 0.29 0.29 0.25 0.17 0.10 0.08 0.09 0.11 0.06 0.05 0.09 0.08 0.05 0.04 0.04 0.03 0.07 0.09 0.09 0.09 0.07 0.08 0.09 0.09 0.10 0.09 0.10
0.19 0.12 0.03 0.06 0.05 0.03 0.04 0.04 0.04 0.03 0.03 0.05 0.08 0.08 0.06 0.07 0.07 0.13 0.21 0.29 0.24 0.31 0.37 0.37 0.32 0.24 0.23 0.17 0.14 0.11 0.08 0.03 0.01 0.01 0.04 0.01 0.01 0.02 0.04 0.06 0.08 0.10 0.04 0.04 0.05 0.08 0.10 0.08 0.07 0.08 0.11 0.11 0.11 0.12
0.08 0.10 0.04 0.04 0.06 0.04 0.04 0.04 0.03 0.04 0.08 0.09 0.11 0.08 0.10 0.13 0.13 0.27 0.36 0.27 0.27 0.32 0.27 0.25 0.17 0.15 0.14 0.12 0.09 0.07 0.03 0.01 0.01 0.00 0.01 0.00 0.00 0.01 0.01 0.03 0.04 0.04 0.02 0.04 0.03 0.03 0.05 0.08 0.09 0.10 0.11 0.14 0.14 0.12
0.05 0.02 0.04 0.04 0.04 0.05 0.09 0.08 0.07 0.11 0.14 0.11 0.10 0.08 0.06 0.11 0.34 0.42 0.38 0.38 0.29 0.18 0.15 0.16 0.14 0.07 0.05 0.07 0.09 0.07 0.06 0.05 0.03 0.02 0.04 0.08 0.06 0.04 0.02 0.02 0.01 0.01 0.02 0.03 0.03 0.03 0.04 0.05 0.08 0.09 0.09 0.09 0.10 0.12
0.08 0.04 0.02 0.03 0.06 0.07 0.11 0.14 0.19 0.16 0.13 0.10 0.09 0.14 0.15 0.23 0.36 0.34 0.34 0.30 0.25 0.15 0.11 0.12 0.21 0.11 0.09 0.09 0.07 0.04 0.03 0.03 0.04 0.07 0.07 0.09 0.12 0.12 0.06 0.05 0.04 0.03 0.05 0.08 0.10 0.07 0.08 0.08 0.08 0.07 0.08 0.09 0.11 0.17
0.06 0.06 0.05 0.02 0.04 0.13 0.24 0.18 0.22 0.16 0.07 0.06 0.08 0.13 0.16 0.42 0.64 0.40 0.29 0.26 0.22 0.20 0.16 0.12 0.15 0.11 0.12 0.11 0.12 0.14 0.11 0.06 0.06 0.05 0.06 0.04 0.05 0.06 0.09 0.08 0.06 0.06 0.07 0.08 0.12 0.19 0.17 0.12 0.14 0.16 0.16 0.16 0.16 0.14
0.09 0.07 0.08 0.07 0.14 0.22 0.19 0.12 0.11 0.12 0.10 0.09 0.09 0.13 0.19 0.34 0.35 0.31 0.26 0.27 0.21 0.16 0.11 0.13 0.13 0.09 0.06 0.05 0.05 0.05 0.11 0.08 0.06 0.06 0.07 0.05 0.05 0.06 0.07 0.06 0.06 0.06 0.06 0.05 0.05 0.06 0.06 0.07 0.08 0.08 0.07 0.07 0.06 0.05
0.17 0.18 0.12 0.09 0.21 0.21 0.21 0.19 0.13 0.19 0.16 0.12 0.13 0.13 0.16 0.16 0.16 0.18 0.18 0.23 0.23 0.18 0.14 0.11 0.11 0.12 0.06 0.05 0.04 0.04 0.02 0.03 0.03 0.02 0.03 0.04 0.05 0.06 0.07 0.08 0.08 0.08 0.07 0.06 0.06 0.06 0.05 0.04 0.06 0.05 0.05 0.05 0.05 0.05
0.28 0.32 0.26 0.19 0.17 0.16 0.18 0.21 0.21 0.16 0.12 0.11 0.15 0.15 0.16 0.15 0.16 0.20 0.16 0.19 0.28 0.20 0.14 0.14 0.12 0.11 0.10 0.09 0.09 0.07 0.06 0.06 0.05 0.03 0.04 0.04 0.04 0.06 0.07 0.09 0.09 0.09 0.09 0.09 0.09 0.08 0.08 0.07 0.07 0.06 0.05 0.05 0.05 0.06

GFSWCAN_prec_precacc_150.txt.gz
Total_Precipitation_Accumulation
1.75 1.79 1.83 1.67 1.40 1.41 1.49 1.46 1.36 1.56 1.34 1.14 0.99 0.88 1.25 1.32 1.50 2.07 1.73 1.49 2.49 3.00 1.16 0.84 0.60 0.66 0.59 0.62 0.90 0.90 1.48 1.49 1.38 1.32 1.06 0.98 0.96 0.47 0.70 1.13 0.67 0.80 0.88 0.93 1.15 1.57 0.98 0.12 0.29 0.61 0.79 0.43 0.29 0.37
1.74 1.86 1.49 1.31 1.04 1.26 1.48 1.37 1.19 1.10 1.60 1.24 1.02 0.96 1.37 1.66 1.69 2.07 1.98 1.39 1.91 2.88 1.59 0.83 0.51 0.43 0.35 0.34 0.47 0.72 1.06 1.11 1.31 1.12 0.71 0.64 0.67 0.60 0.68 0.90 0.88 1.45 1.19 1.27 0.99 0.96 0.56 0.30 0.42 0.48 0.40 0.41 0.44 0.59
1.51 1.75 1.39 1.10 1.03 1.06 1.28 1.23 1.22 0.99 1.17 1.23 1.04 1.05 1.63 1.99 1.86 2.14 1.91 1.45 3.02 3.41 2.12 1.06 0.73 0.36 0.27 0.35 0.33 0.83 0.50 0.75 1.21 1.10 1.38 1.06 0.86 0.49 0.48 0.72 0.70 0.59 0.56 0.98 0.93 0.67 0.39 0.53 0.44 0.25 0.25 0.28 0.30 0.31
1.44 1.74 1.31 1.01 1.18 1.09 1.07 0.77 0.90 1.07 0.96 1.26 1.54 1.47 1.80 2.03 1.95 2.52 2.44 1.99 3.34 2.67 2.34 1.39 0.87 0.50 0.39 0.58 0.34 0.39 0.34 0.38 0.71 1.05 1.61 1.41 0.96 0.75 0.66 0.67 0.60 0.50 0.75 0.71 1.02 0.97 0.70 0.66 0.94 0.62 0.44 0.32 0.32 0.33
1.48 1.37 1.14 1.28 1.24 0.87 0.82 0.53 0.58 0.84 0.79 1.24 1.59 1.77 2.11 2.35 2.31 3.31 3.04 2.67 2.47 2.24 2.12 1.69 0.80 0.70 0.45 0.79 0.50 0.57 0.55 0.60 1.03 1.13 1.16 0.82 0.60 0.93 0.89 0.84 0.52 0.39 0.97 0.95 0.91 1.14 1.28 1.36 0.88 0.71 0.80 0.61 0.44 0.22
1.44 1.02 1.36 1.62 1.12 0.76 0.53 0.50 0.54 0.61 0.75 1.19 1.48 1.82 2.34 2.61 3.63 5.77 6.97 3.96 2.24 2.11 2.64 2.05 1.07 0.76 0.69 1.12 1.04 0.63 0.95 1.00 1.34 1.66 0.92 0.47 0.46 1.09 1.05 1.09 0.67 0.46 0.47 0.65 0.99 1.04 1.08 0.97 0.61 0.38 0.29 0.34 0.34 0.22
1.35 1.47 1.80 1.60 0.91 0.50 0.39 0.40 0.48 0.59 0.86 1.16 1.33 1.57 1.92 2.20 2.81 3.90 3.16 1.87 1.60 2.44 3.74 2.45 1.53 1.02 1.08 1.60 1.88 1.60 1.45 1.74 1.96 1.92 1.15 0.59 0.51 0.85 1.05 0.91 0.63 0.42 0.52 0.52 0.69 0.61 0.41 0.33 0.27 0.15 0.06 0.04 0.02 0.02
1.88 1.87 1.49 1.03 0.61 0.51 0.40 0.46 0.57 0.76 0.93 1.12 1.45 1.61 1.95 2.43 2.99 2.58 1.75 1.81 1.81 2.85 2.48 1.82 1.53 1.68 1.45 2.11 2.43 1.93 2.12 2.24 2.02 1.78 1.14 0.73 0.80 1.19 1.18 0.65 0.37 0.27 0.41 0.37 0.38 0.29 0.19 0.12 0.05 0.03 0.01 0.01 0.01 0.01
2.19 1.52 0.96 0.81 0.63 0.52 0.45 0.58 0.74 1.02 1.10 1.67 2.11 2.76 3.98 3.41 3.01 1.94 1.64 2.29 2.19 1.99 1.50 0.72 1.07 2.32 2.16 2.06 2.03 1.69 1.88 2.13 1.59 1.08 0.81 1.02 1.31 1.35 0.78 0.35 0.31 0.25 0.30 0.32 0.21 0.09 0.05 0.06 0.05 0.04 0.02 0.01 0.01 0.02
1.48 1.03 0.67 0.63 0.58 0.69 0.77 0.92 1.19 1.36 1.81 2.21 2.70 3.48 3.66 2.29 1.93 2.15 3.10 3.38 3.26 1.88 1.15 0.70 0.58 1.51 2.18 2.13 1.72 1.54 1.33 1.19 1.21 0.89 0.96 1.32 1.00 0.50 0.21 0.21 0.22 0.17 0.20 0.21 0.18 0.17 0.11 0.09 0.05 0.03 0.03 0.04 0.05 0.09
0.80 0.71 0.59 0.60 0.61 0.65 0.79 0.93 1.57 1.88 1.92 1.75 2.11 2.79 2.34 2.28 2.28 2.51 2.44 1.83 1.56 1.05 0.42 0.45 0.56 1.24 1.40 2.08 1.58 1.19 1.33 0.89 0.70 0.83 0.85 1.10 0.62 0.36 0.12 0.09 0.11 0.15 0.19 0.23 0.25 0.26 0.23 0.19 0.14 0.09 0.13 0.16 0.15 0.15
0.84 0.68 0.65 0.63 0.63 0.75 0.88 1.13 1.49 0.99 1.14 1.03 1.62 1.92 2.46 2.32 1.95 1.51 1.17 0.85 0.63 0.49 0.31 0.42 0.71 1.42 1.26 1.63 1.68 1.40 1.29 1.13 1.09 0.80 0.61 0.84 0.59 0.27 0.20 0.16 0.13 0.16 0.21 0.28 0.26 0.24 0.26 0.25 0.25 0.21 0.21 0.20 0.21 0.25
0.68 0.67 0.73 0.61 0.61 0.69 0.77 1.00 1.04 1.00 1.20 1.33 1.11 1.19 1.40 1.12 1.15 0.77 0.54 0.50 0.57 0.43 0.37 0.50 0.99 1.57 1.32 1.75 1.70 1.23 1.55 1.36 1.09 1.58 1.09 0.62 0.29 0.20 0.19 0.21 0.24 0.25 0.24 0.29 0.33 0.33 0.29 0.29 0.27 0.26 0.29 0.38 0.40 0.54
0.54 0.60 0.78 0.80 0.86 0.96 1.21 1.45 1.82 1.68 1.40 1.11 0.98 0.84 1.09 0.81 0.64 0.60 0.66 0.86 0.50 0.62 0.66 1.05 1.18 1.47 1.52 1.57 1.29 0.98 1.16 1.09 1.05 0.93 0.73 0.45 0.39 0.35 0.31 0.30 0.27 0.38 0.42 0.44 0.50 0.48 0.53 0.58 0.74 0.90 0.96 1.05 0.86 0.96
0.58 0.82 1.06 1.07 1.13 1.20 1.36 1.57 1.61 1.21 0.95 1.08 0.98 1.06 0.69 0.96 0.81 0.78 0.64 0.45 0.33 0.64 1.23 1.43 1.43 1.25 1.03 1.53 0.93 0.72 0.80 0.87 0.78 0.94 0.60 0.63 0.58 0.54 0.58 0.63 0.65 0.75 0.81 0.89 0.97 0.90 0.99 0.96 0.82 1.06 1.19 1.08 0.86 0.85
0.60 1.24 1.25 1.16 1.19 1.11 1.27 1.28 1.23 1.08 1.03 1.10 1.15 1.01 0.79 0.78 0.83 0.71 0.58 0.47 0.50 1.23 1.41 1.40 1.30 0.96 0.74 0.48 0.50 0.50 0.59 0.94 0.69 0.56 0.67 0.66 0.73 0.87 0.92 0.96 1.03 1.05 1.00 0.99 0.97 0.86 0.85 0.80 0.70 0.78 0.81 0.75 0.72 0.55
0.87 1.44 1.27 1.03 0.90 0.89 1.00 1.01 0.97 0.83 0.85 0.84 1.09 1.19 1.04 0.89 0.98 0.94 0.78 0.63 0.63 1.16 1.29 0.84 0.76 0.71 0.64 0.29 0.26 0.35 0.65 0.89 0.90 0.94 0.89 0.86 0.93 1.06 1.08 1.01 0.98 0.82 0.72 0.69 0.64 0.61 0.62 0.60 0.42 0.30 0.34 0.44 0.36 0.33
0.78 0.78 0.74 0.63 0.58 0.72 0.59 0.39 0.54 0.47 0.51 0.84 0.89 1.16 0.83 1.01 1.00 0.87 0.83 0.73 0.81 0.90 0.92 0.85 0.69 0.47 0.56 0.52 0.64 0.79 0.91 1.06 1.03 0.93 0.95 1.05 0.96 0.96 0.95 0.82 0.84 0.67 0.54 0.52 0.43 0.41 0.39 0.31 0.23 0.27 0.25 0.23 0.19 0.23
0.78 0.64 0.63 0.52 0.42 0.59 0.62 0.44 0.23 0.30 0.69 0.73 0.76 0.61 0.51 0.67 0.63 0.62 0.49 0.46 0.33 0.23 0.24 0.28 0.29 0.47 0.69 0.79 0.83 0.90 0.89 0.68 0.69 0.70 0.75 0.85 0.83 0.80 0.80 0.72 0.65 0.58 0.43 0.36 0.25 0.24 0.28 0.26 0.28 0.25 0.21 0.16 0.19 0.22
0.84 0.64 0.52 0.44 0.53 0.48 0.40 0.26 0.12 0.17 0.51 0.59 0.55 0.31 0.29 0.42 0.30 0.16 0.09 0.06 0.04 0.05 0.14 0.31 0.71 0.89 0.83 0.92 0.71 0.67 0.65 0.56 0.42 0.40 0.59 0.73 0.73 0.59 0.62 0.49 0.44 0.38 0.29 0.29 0.28 0.26 0.22 0.23 0.24 0.19 0.18 0.17 0.17 0.17
0.80 0.50 0.21 0.20 0.39 0.31 0.21 0.14 0.22 0.18 0.27 0.36 0.30 0.13 0.23 0.10 0.09 0.09 0.06 0.02 0.10 0.23 0.60 0.86 0.83 0.93 0.67 0.65 0.58 0.50 0.56 0.49 0.51 0.32 0.34 0.43 0.51 0.34 0.40 0.44 0.33 0.26 0.23 0.27 0.27 0.29 0.24 0.21 0.18 0.14 0.14 0.16 0.16 0.14
0.35 0.17 0.14 0.18 0.17 0.15 0.16 0.03 0.09 0.09 0.06 0.11 0.09 0.05 0.08 0.09 0.08 0.04 0.04 0.10 0.41 0.70 0.71 0.60 0.57 0.43 0.30 0.35 0.36 0.27 0.35 0.28 0.31 0.35 0.36 0.32 0.36 0.38 0.44 0.45 0.30 0.31 0.31 0.27 0.22 0.20 0.17 0.14 0.11 0.10 0.10 0.13 0.11 0.09
0.06 0.07 0.07 0.06 0.16 0.07 0.14 0.08 0.08 0.09 0.07 0.07 0.04 0.05 0.06 0.05 0.04 0.01 0.09 0.22 0.62 0.79 0.51 0.26 0.26 0.20 0.25 0.33 0.20 0.20 0.22 0.19 0.25 0.33 0.36 0.34 0.34 0.33 0.28 0.26 0.23 0.18 0.16 0.13 0.07 0.05 0.06 0.03 0.04 0.07 0.10 0.12 0.14 0.15
0.06 0.08 0.08 0.11 0.11 0.08 0.09 0.09 0.02 0.03 0.03 0.03 0.03 0.06 0.07 0.05 0.02 0.04 0.13 0.31 0.57 0.45 0.27 0.29 0.19 0.17 0.19 0.19 0.21 0.27 0.32 0.25 0.22 0.24 0.24 0.16 0.16 0.16 0.09 0.08 0.06 0.05 0.03 0.02 0.01 0.05 0.05 0.05 0.05 0.08 0.10 0.11 0.13 0.12
0.17 0.11 0.12 0.15 0.08 0.03 0.04 0.05 0.04 0.03 0.04 0.03 0.05 0.07 0.05 0.03 0.05 0.06 0.11 0.33 0.30 0.32 0.33 0.31 0.24 0.21 0.24 0.29 0.29 0.25 0.17 0.10 0.08 0.09 0.11 0.06 0.05 0.09 0.09 0.05 0.05 0.04 0.04 0.08 0.10 0.10 0.09 0.07 0.08 0.09 0.09 0.10 0.10 0.10
0.20 0.12 0.03 0.06 0.05 0.03 0.04 0.04 0.04 0.03 0.03 0.05 0.08 0.08 0.06 0.07 0.08 0.13 0.21 0.29 0.24 0.31 0.37 0.37 0.32 0.24 0.23 0.17 0.14 0.11 0.08 0.03 0.01 0.01 0.04 0.01 0.01 0.03 0.05 0.07 0.09 0.10 0.04 0.04 0.05 0.09 0.11 0.08 0.08 0.08 0.11 0.12 0.11 0.12
0.11 0.10 0.04 0.04 0.06 0.04 0.04 0.04 0.03 0.04 0.08 0.09 0.11 0.08 0.10 0.13 0.13 0.27 0.36 0.27 0.27 0.32 0.27 0.25 0.17 0.15 0.14 0.12 0.09 0.07 0.03 0.01 0.01 0.00 0.01 0.00 0.00 0.01 0.02 0.03 0.04 0.04 0.02 0.04 0.03 0.03 0.05 0.09 0.10 0.10 0.11 0.14 0.14 0.12
0.06 0.02 0.04 0.04 0.04 0.05 0.09 0.08 0.07 0.11 0.15 0.11 0.10 0.08 0.07 0.11 0.34 0.42 0.38 0.38 0.29 0.18 0.15 0.16 0.14 0.07 0.05 0.07 0.09 0.07 0.06 0.05 0.03 0.02 0.04 0.08 0.06 0.04 0.02 0.02 0.01 0.01 0.02 0.03 0.03 0.03 0.04 0.06 0.08 0.10 0.10 0.10 0.10 0.12
0.17 0.11 0.05 0.05 0.07 0.08 0.12 0.15 0.20 0.16 0.14 0.10 0.10 0.15 0.15 0.23 0.36 0.35 0.34 0.30 0.25 0.15 0.11 0.12 0.21 0.11 0.09 0.09 0.07 0.04 0.03 0.03 0.04 0.08 0.07 0.10 0.12 0.12 0.06 0.05 0.04 0.03 0.05 0.08 0.10 0.07 0.08 0.08 0.08 0.07 0.08 0.10 0.12 0.17
0.12 0.13 0.13 0.06 0.06 0.14 0.27 0.19 0.24 0.17 0.08 0.07 0.08 0.13 0.16 0.43 0.64 0.40 0.29 0.26 0.22 0.20 0.16 0.12 0.15 0.11 0.12 0.11 0.12 0.14 0.11 0.06 0.06 0.07 0.07 0.05 0.05 0.07 0.09 0.08 0.06 0.06 0.07 0.08 0.12 0.19 0.18 0.14 0.14 0.16 0.17 0.17 0.18 0.16
0.16 0.17 0.17 0.14 0.18 0.24 0.20 0.13 0.12 0.13 0.10 0.09 0.10 0.13 0.19 0.34 0.35 0.31 0.27 0.27 0.21 0.16 0.11 0.14 0.13 0.09 0.06 0.06 0.05 0.05 0.11 0.08 0.06 0.06 0.07 0.05 0.06 0.07 0.07 0.06 0.06 0.06 0.06 0.05 0.05 0.06 0.06 0.07 0.08 0.08 0.07 0.07 0.07 0.05
0.18 0.24 0.19 0.16 0.24 0.25 0.22 0.19 0.13 0.19 0.17 0.12 0.14 0.13 0.16 0.16 0.16 0.18 0.19 0.23 0.23 0.18 0.14 0.11 0.11 0.12 0.06 0.05 0.04 0.04 0.02 0.04 0.03 0.02 0.03 0.04 0.05 0.07 0.07 0.08 0.08 0.08 0.07 0.07 0.06 0.06 0.05 0.04 0.06 0.05 0.05 0.06 0.05 0.05
0.28 0.32 0.27 0.20 0.19 0.17 0.18 0.22 0.21 0.16 0.12 0.11 0.15 0.15 0.16 0.15 0.16 0.20 0.17 0.19 0.28 0.20 0.14 0.14 0.13 0.11 0.10 0.09 0.10 0.09 0.08 0.06 0.05 0.03 0.04 0.04 0.04 0.06 0.07 0.09 0.10 0.10 0.11 0.11 0.10 0.09 0.08 0.07 0.07 0.06 0.06 0.05 0.05 0.06

GFSWCAN_prec_precacc_156.txt.gz
Total_Precipitation_Accumulation
1.79 1.81 1.86 1.70 1.42 1.43 1.51 1.49 1.39 1.57 1.34 1.14 0.99 0.89 1.25 1.32 1.50 2.07 1.73 1.49 2.49 3.00 1.16 0.84 0.60 0.66 0.59 0.62 0.90 0.90 1.49 1.49 1.38 1.32 1.06 0.98 0.96 0.47 0.70 1.13 0.67 0.80 0.89 0.96 1.20 1.65 1.02 0.12 0.30 0.64 0.82 0.45 0.31 0.38
1.77 1.89 1.52 1.33 1.06 1.27 1.49 1.41 1.22 1.12 1.60 1.24 1.02 0.96 1.37 1.66 1.69 2.07 1.98 1.39 1.91 2.88 1.59 0.83 0.51 0.43 0.35 0.34 0.47 0.72 1.06 1.11 1.31 1.13 0.71 0.64 0.67 0.60 0.68 0.91 0.88 1.45 1.19 1.27 1.00 0.97 0.56 0.30 0.43 0.49 0.41 0.42 0.44 0.60
1.53 1.77 1.40 1.11 1.05 1.08 1.29 1.25 1.25 1.01 1.18 1.24 1.04 1.05 1.63 1.99 1.86 2.14 1.91 1.45 3.02 3.42 2.12 1.06 0.73 0.36 0.27 0.35 0.33 0.83 0.50 0.75 1.21 1.10 1.39 1.07 0.87 0.49 0.49 0.73 0.70 0.59 0.56 0.99 0.96 0.67 0.39 0.53 0.44 0.25 0.25 0.28 0.30 0.31
1.45 1.76 1.33 1.03 1.21 1.11 1.09 0.78 0.93 1.09 0.98 1.26 1.54 1.47 1.80 2.03 1.95 2.52 2.45 1.99 3.34 2.68 2.35 1.39 0.87 0.50 0.39 0.58 0.34 0.39 0.34 0.38 0.71 1.06 1.62 1.42 0.97 0.76 0.67 0.67 0.60 0.50 0.75 0.71 1.03 0.97 0.70 0.66 0.94 0.62 0.44 0.32 0.32 0.33
1.50 1.41 1.17 1.32 1.27 0.89 0.84 0.54 0.60 0.85 0.82 1.25 1.59 1.78 2.12 2.36 2.31 3.33 3.07 2.68 2.48 2.25 2.14 1.70 0.80 0.70 0.45 0.79 0.50 0.57 0.55 0.60 1.04 1.15 1.18 0.83 0.61 0.94 0.89 0.85 0.52 0.39 0.97 0.95 0.91 1.14 1.28 1.36 0.89 0.72 0.81 0.61 0.44 0.22
1.47 1.07 1.40 1.67 1.21 0.78 0.58 0.54 0.56 0.65 0.79 1.23 1.50 1.83 2.35 2.63 3.64 5.79 6.98 3.98 2.25 2.12 2.66 2.06 1.07 0.76 0.69 1.12 1.04 0.63 0.95 1.01 1.37 1.71 0.95 0.48 0.46 1.12 1.08 1.09 0.67 0.46 0.47 0.65 0.99 1.04 1.08 0.97 0.61 0.38 0.29 0.34 0.34 0.24
1.39 1.49 1.83 1.63 1.03 0.56 0.42 0.52 0.52 0.66 0.94 1.19 1.36 1.61 1.95 2.20 2.83 3.93 3.18 1.91 1.62 2.50 3.79 2.47 1.54 1.03 1.08 1.60 1.89 1.61 1.48 1.80 2.03 2.01 1.20 0.61 0.53 0.90 1.10 0.93 0.63 0.42 0.52 0.52 0.69 0.61 0.41 0.33 0.27 0.16 0.07 0.05 0.04 0.04
1.92 1.89 1.54 1.08 0.64 0.56 0.43 0.59 0.66 0.80 1.07 1.17 1.48 1.64 1.96 2.43 3.00 2.58 1.76 1.81 1.86 2.95 2.55 1.86 1.54 1.75 1.47 2.13 2.48 2.01 2.32 2.50 2.25 1.91 1.20 0.77 0.83 1.26 1.25 0.66 0.37 0.27 0.41 0.37 0.38 0.29 0.20 0.13 0.08 0.05 0.04 0.12 0.19 0.14
2.22 1.55 1.00 0.86 0.68 0.57 0.47 0.71 0.86 1.05 1.18 1.71 2.12 2.76 3.99 3.43 3.03 1.95 1.65 2.33 2.35 2.11 1.61 0.75 1.09 2.43 2.22 2.14 2.09 1.75 1.97 2.29 1.70 1.14 0.84 1.09 1.39 1.41 0.79 0.35 0.31 0.25 0.30 0.32 0.22 0.12 0.08 0.09 0.06 0.05 0.02 0.02 0.13 0.09
1.49 1.05 0.70 0.67 0.65 0.77 0.79 0.96 1.22 1.37 1.81 2.21 2.71 3.52 3.73 2.34 1.96 2.18 3.18 3.46 3.43 2.02 1.21 0.73 0.61 1.59 2.26 2.22 1.84 1.72 1.43 1.24 1.25 0.91 0.97 1.38 1.02 0.50 0.21 0.21 0.22 0.17 0.20 0.21 0.21 0.24 0.21 0.19 0.13 0.07 0.03 0.04 0.05 0.09
0.83 0.75 0.63 0.64 0.64 0.68 0.79 0.93 1.57 1.88 1.93 1.77 2.16 2.86 2.42 2.33 2.37 2.58 2.57 1.93 1.62 1.11 0.44 0.45 0.56 1.25 1.45 2.15 1.67 1.29 1.49 1.03 0.79 0.94 0.89 1.16 0.63 0.36 0.12 0.09 0.11 0.15 0.19 0.23 0.25 0.26 0.25 0.23 0.14 0.10 0.13 0.16 0.15 0.15
0.86 0.69 0.65 0.64 0.64 0.75 0.88 1.13 1.49 0.99 1.15 1.07 1.70 2.04 2.51 2.40 2.03 1.57 1.21 0.88 0.67 0.51 0.32 0.43 0.73 1.43 1.33 1.70 1.73 1.47 1.37 1.22 1.18 0.87 0.67 0.87 0.60 0.28 0.20 0.16 0.13 0.16 0.21 0.28 0.26 0.24 0.26 0.25 0.25 0.22 0.22 0.21 0.21 0.25
0.69 0.67 0.73 0.61 0.61 0.69 0.77 1.00 1.04 1.02 1.27 1.42 1.20 1.28 1.46 1.17 1.19 0.78 0.55 0.51 0.58 0.43 0.38 0.51 1.05 1.60 1.35 1.77 1.72 1.25 1.58 1.40 1.13 1.61 1.11 0.62 0.31 0.20 0.19 0.21 0.24 0.25 0.24 0.29 0.33 0.33 0.29 0.29 0.27 0.27 0.29 0.38 0.40 0.54
0.55 0.60 0.78 0.82 0.88 0.96 1.21 1.46 1.84 1.71 1.54 1.25 1.07 0.89 1.11 0.83 0.64 0.60 0.67 0.88 0.52 0.64 0.67 1.06 1.24 1.52 1.55 1.58 1.30 0.99 1.19 1.11 1.07 0.94 0.75 0.50 0.41 0.35 0.31 0.30 0.27 0.38 0.42 0.44 0.50 0.48 0.53 0.58 0.74 0.90 0.96 1.05 0.86 0.96
0.60 0.82 1.06 1.07 1.13 1.20 1.36 1.57 1.63 1.28 1.11 1.14 1.01 1.08 0.69 0.97 0.83 0.79 0.65 0.46 0.36 0.67 1.23 1.45 1.47 1.32 1.12 1.55 0.94 0.72 0.81 0.89 0.78 0.96 0.70 0.68 0.58 0.54 0.58 0.63 0.65 0.75 0.81 0.89 0.97 0.90 0.99 0.96 0.82 1.06 1.19 1.08 0.86 0.85
0.62 1.26 1.27 1.17 1.19 1.11 1.27 1.29 1.26 1.18 1.11 1.11 1.16 1.02 0.80 0.79 0.85 0.72 0.58 0.48 0.54 1.25 1.42 1.42 1.37 1.04 0.79 0.50 0.51 0.50 0.59 0.96 0.79 0.65 0.69 0.66 0.73 0.87 0.92 0.96 1.03 1.05 1.00 0.99 0.97 0.86 0.85 0.80 0.70 0.78 0.81 0.75 0.72 0.55
0.88 1.46 1.27 1.03 0.90 0.89 1.01 1.07 1.05 0.87 0.87 0.85 1.09 1.20 1.06 0.92 1.04 1.04 0.84 0.68 0.70 1.19 1.31 0.91 0.82 0.78 0.72 0.33 0.28 0.37 0.69 0.96 0.92 0.94 0.89 0.86 0.93 1.06 1.09 1.01 0.98 0.82 0.72 0.69 0.64 0.61 0.63 0.60 0.42 0.30 0.34 0.44 0.36 0.33
0.81 0.85 0.77 0.64 0.58 0.72 0.61 0.44 0.62 0.50 0.53 0.84 0.89 1.17 0.84 1.02 1.02 0.90 0.89 0.79 0.87 0.96 0.98 0.97 0.76 0.53 0.61 0.56 0.68 0.86 0.96 1.07 1.03 0.93 0.95 1.05 0.96 0.96 0.95 0.82 0.84 0.67 0.54 0.52 0.43 0.41 0.39 0.31 0.23 0.27 0.25 0.23 0.19 0.23
0.86 0.87 0.91 0.63 0.43 0.61 0.66 0.48 0.29 0.36 0.71 0.74 0.77 0.61 0.53 0.69 0.64 0.64 0.52 0.48 0.39 0.29 0.30 0.37 0.39 0.52 0.72 0.82 0.88 0.92 0.90 0.69 0.69 0.70 0.75 0.85 0.83 0.81 0.81 0.72 0.65 0.58 0.43 0.36 0.25 0.24 0.28 0.26 0.28 0.25 0.21 0.16 0.19 0.22
0.88 0.67 0.58 0.61 0.62 0.60 0.55 0.39 0.15 0.20 0.52 0.62 0.56 0.31 0.30 0.44 0.32 0.17 0.09 0.06 0.06 0.09 0.17 0.33 0.73 0.97 0.96 0.98 0.73 0.70 0.68 0.56 0.42 0.40 0.59 0.73 0.73 0.59 0.62 0.49 0.44 0.38 0.29 0.29 0.28 0.26 0.22 0.23 0.24 0.19 0.18 0.17 0.17 0.18
0.80 0.50 0.22 0.29 0.65 0.50 0.32 0.28 0.27 0.19 0.29 0.38 0.31 0.15 0.25 0.13 0.11 0.10 0.08 0.04 0.12 0.24 0.61 0.86 0.85 0.98 0.69 0.65 0.58 0.50 0.56 0.49 0.51 0.32 0.34 0.44 0.51 0.34 0.40 0.44 0.33 0.26 0.23 0.28 0.27 0.29 0.25 0.21 0.18 0.15 0.14 0.16 0.16 0.14
0.37 0.18 0.15 0.21 0.34 0.44 0.28 0.06 0.15 0.15 0.09 0.16 0.13 0.09 0.14 0.14 0.11 0.07 0.06 0.12 0.41 0.70 0.71 0.61 0.59 0.45 0.31 0.36 0.36 0.27 0.35 0.28 0.31 0.35 0.36 0.32 0.36 0.38 0.44 0.45 0.31 0.32 0.31 0.28 0.23 0.21 0.17 0.15 0.11 0.10 0.11 0.13 0.11 0.09
0.07 0.09 0.13 0.08 0.18 0.09 0.16 0.09 0.10 0.11 0.11 0.11 0.08 0.09 0.09 0.09 0.07 0.04 0.10 0.23 0.62 0.80 0.51 0.26 0.27 0.20 0.25 0.33 0.20 0.20 0.22 0.19 0.25 0.33 0.36 0.34 0.34 0.33 0.28 0.26 0.23 0.19 0.16 0.13 0.07 0.06 0.06 0.03 0.04 0.08 0.11 0.12 0.15 0.16
0.09 0.14 0.15 0.19 0.14 0.10 0.10 0.10 0.03 0.05 0.06 0.06 0.06 0.08 0.09 0.07 0.03 0.05 0.14 0.31 0.60 0.46 0.27 0.29 0.19 0.17 0.19 0.19 0.21 0.27 0.32 0.25 0.22 0.24 0.24 0.16 0.16 0.16 0.09 0.08 0.06 0.05 0.03 0.03 0.01 0.05 0.05 0.06 0.05 0.09 0.11 0.11 0.14 0.12
0.23 0.16 0.18 0.26 0.12 0.06 0.05 0.06 0.04 0.04 0.05 0.04 0.06 0.08 0.07 0.05 0.06 0.06 0.11 0.34 0.34 0.33 0.34 0.31 0.24 0.22 0.25 0.30 0.30 0.26 0.18 0.11 0.09 0.10 0.12 0.07 0.07 0.11 0.10 0.05 0.05 0.04 0.04 0.10 0.12 0.10 0.09 0.08 0.09 0.09 0.10 0.10 0.10 0.10
0.24 0.16 0.05 0.11 0.10 0.05 0.05 0.05 0.05 0.03 0.04 0.07 0.10 0.10 0.08 0.11 0.09 0.13 0.21 0.32 0.26 0.31 0.37 0.37 0.34 0.25 0.24 0.18 0.15 0.12 0.09 0.03 0.02 0.02 0.05 0.02 0.02 0.05 0.08 0.09 0.10 0.11 0.04 0.05 0.06 0.10 0.11 0.08 0.08 0.08 0.12 0.12 0.12 0.12
0.22 0.17 0.06 0.05 0.07 0.05 0.05 0.05 0.04 0.05 0.09 0.11 0.14 0.12 0.13 0.14 0.14 0.28 0.38 0.28 0.30 0.33 0.27 0.25 0.17 0.15 0.14 0.12 0.09 0.07 0.03 0.01 0.01 0.01 0.01 0.00 0.01 0.02 0.05 0.08 0.08 0.07 0.03 0.04 0.03 0.04 0.06 0.09 0.10 0.10 0.11 0.15 0.14 0.12
0.27 0.15 0.11 0.07 0.04 0.06 0.12 0.13 0.12 0.14 0.17 0.14 0.13 0.12 0.10 0.13 0.38 0.47 0.42 0.41 0.31 0.19 0.15 0.16 0.14 0.07 0.05 0.07 0.09 0.07 0.06 0.05 0.03 0.02 0.04 0.08 0.06 0.04 0.03 0.04 0.03 0.01 0.04 0.03 0.03 0.03 0.05 0.07 0.10 0.11 0.11 0.11 0.11 0.12
0.31 0.17 0.10 0.10 0.12 0.13 0.15 0.18 0.22 0.20 0.16 0.14 0.15 0.20 0.21 0.29 0.42 0.43 0.36 0.31 0.25 0.15 0.11 0.12 0.21 0.11 0.09 0.09 0.07 0.04 0.03 0.03 0.05 0.10 0.08 0.11 0.15 0.15 0.09 0.05 0.04 0.03 0.05 0.08 0.11 0.07 0.09 0.10 0.11 0.10 0.10 0.12 0.14 0.19
0.14 0.15 0.17 0.11 0.13 0.22 0.39 0.27 0.34 0.22 0.09 0.09 0.12 0.17 0.21 0.53 0.74 0.43 0.29 0.26 0.23 0.20 0.16 0.13 0.15 0.11 0.12 0.11 0.12 0.14 0.11 0.06 0.07 0.08 0.09 0.08 0.09 0.09 0.10 0.08 0.06 0.06 0.07 0.08 0.12 0.21 0.22 0.17 0.18 0.20 0.21 0.23 0.25 0.23
0.19 0.25 0.27 0.22 0.34 0.43 0.34 0.17 0.15 0.15 0.12 0.11 0.11 0.15 0.28 0.51 0.43 0.32 0.27 0.28 0.22 0.16 0.12 0.14 0.13 0.10 0.07 0.06 0.06 0.07 0.12 0.10 0.07 0.06 0.08 0.06 0.06 0.08 0.08 0.07 0.07 0.07 0.06 0.06 0.06 0.06 0.08 0.10 0.11 0.10 0.09 0.08 0.08 0.08
0.19 0.28 0.27 0.25 0.33 0.30 0.25 0.21 0.16 0.24 0.21 0.15 0.17 0.14 0.17 0.20 0.24 0.22 0.21 0.25 0.24 0.19 0.15 0.12 0.12 0.13 0.07 0.06 0.06 0.07 0.06 0.06 0.05 0.04 0.05 0.05 0.06 0.07 0.08 0.09 0.10 0.09 0.09 0.08 0.08 0.07 0.06 0.05 0.08 0.08 0.08 0.08 0.07 0.07
0.28 0.37 0.33 0.22 0.19 0.17 0.18 0.24 0.29 0.22 0.20 0.23 0.28 0.22 0.23 0.28 0.27 0.31 0.24 0.22 0.31 0.22 0.15 0.15 0.13 0.12 0.11 0.11 0.13 0.10 0.09 0.08 0.06 0.04 0.04 0.04 0.04 0.07 0.07 0.10 0.11 0.12 0.13 0.15 0.14 0.13 0.11 0.10 0.09 0.07 0.06 0.06 0.06 0.08

GFSWCAN_prec_precacc_159.txt.gz
Total_Precipitation_Accumulation
1.79 1.81 1.86 1.70 1.42 1.43 1.51 1.49 1.39 1.57 1.34 1.14 0.99 0.89 1.25 1.32 1.50 2.07 1.73 1.49 2.49 3.00 1.16 0.84 0.60 0.66 0.59 0.62 0.90 0.90 1.49 1.49 1.38 1.32 1.06 0.98 0.96 0.47 0.70 1.13 0.67 0.80 0.89 0.96 1.20 1.65 1.02 0.12 0.30 0.64 0.83 0.46 0.31 0.38
1.78 1.89 1.52 1.33 1.06 1.27 1.50 1.41 1.22 1.12 1.60 1.24 1.02 0.96 1.37 1.66 1.69 2.07 1.98 1.39 1.91 2.88 1.59 0.83 0.51 0.43 0.35 0.34 0.47 0.72 1.06 1.11 1.31 1.13 0.71 0.64 0.67 0.60 0.68 0.91 0.88 1.45 1.19 1.27 1.00 0.97 0.56 0.30 0.43 0.49 0.41 0.42 0.44 0.60
1.54 1.77 1.41 1.12 1.05 1.08 1.29 1.25 1.25 1.01 1.18 1.24 1.04 1.05 1.63 1.99 1.86 2.14 1.91 1.45 3.02 3.42 2.12 1.06 0.73 0.36 0.27 0.35 0.33 0.83 0.50 0.75 1.21 1.10 1.39 1.07 0.87 0.49 0.49 0.73 0.70 0.59 0.56 0.99 0.96 0.67 0.39 0.53 0.44 0.25 0.25 0.28 0.30 0.31
1.47 1.77 1.34 1.03 1.21 1.11 1.09 0.79 0.93 1.09 0.98 1.26 1.54 1.47 1.80 2.03 1.95 2.52 2.45 1.99 3.34 2.68 2.35 1.39 0.87 0.50 0.39 0.58 0.34 0.39 0.34 0.38 0.71 1.06 1.63 1.42 0.97 0.76 0.67 0.67 0.60 0.50 0.75 0.71 1.03 0.97 0.70 0.66 0.94 0.62 0.44 0.32 0.32 0.33
1.51 1.41 1.18 1.32 1.27 0.89 0.84 0.54 0.60 0.85 0.82 1.25 1.59 1.78 2.12 2.36 2.31 3.33 3.07 2.68 2.48 2.25 2.14 1.70 0.80 0.70 0.45 0.79 0.50 0.57 0.55 0.60 1.04 1.15 1.18 0.83 0.61 0.94 0.89 0.85 0.52 0.39 0.97 0.95 0.91 1.14 1.28 1.36 0.89 0.72 0.81 0.61 0.44 0.22
1.48 1.08 1.41 1.69 1.21 0.80 0.58 0.54 0.56 0.65 0.79 1.23 1.50 1.83 2.35 2.63 3.64 5.79 6.98 3.99 2.25 2.12 2.66 2.06 1.07 0.76 0.69 1.12 1.04 0.63 0.95 1.01 1.37 1.71 0.95 0.48 0.46 1.13 1.08 1.09 0.67 0.46 0.47 0.65 0.99 1.04 1.08 0.97 0.61 0.38 0.29 0.34 0.34 0.24
1.40 1.51 1.85 1.65 1.07 0.61 0.44 0.52 0.53 0.67 0.95 1.20 1.36 1.61 1.96 2.20 2.84 3.93 3.19 1.93 1.62 2.50 3.79 2.47 1.54 1.03 1.08 1.60 1.89 1.61 1.48 1.80 2.03 2.02 1.20 0.61 0.53 0.92 1.11 0.93 0.63 0.42 0.52 0.52 0.69 0.61 0.41 0.33 0.27 0.16 0.07 0.05 0.04 0.04
1.95 1.91 1.55 1.13 0.73 0.74 0.45 0.60 0.68 0.82 1.09 1.19 1.48 1.65 1.98 2.43 3.00 2.59 1.76 1.81 1.86 2.95 2.55 1.86 1.54 1.78 1.49 2.13 2.49 2.02 2.33 2.50 2.25 1.92 1.20 0.77 0.83 1.27 1.26 0.66 0.37 0.27 0.41 0.37 0.38 0.29 0.20 0.13 0.08 0.05 0.04 0.12 0.21 0.18
2.24 1.56 1.02 0.94 0.75 0.71 0.49 0.73 0.91 1.07 1.27 1.78 2.14 2.81 4.00 3.43 3.03 1.95 1.65 2.33 2.35 2.11 1.61 0.75 1.09 2.46 2.27 2.17 2.09 1.75 1.97 2.30 1.70 1.14 0.84 1.10 1.40 1.42 0.80 0.35 0.31 0.25 0.30 0.32 0.22 0.12 0.08 0.09 0.06 0.05 0.02 0.03 0.25 0.35
1.51 1.06 0.71 0.72 0.71 0.79 0.80 1.04 1.35 1.41 1.92 2.27 2.71 3.52 3.73 2.35 1.96 2.18 3.18 3.47 3.44 2.03 1.22 0.73 0.62 1.62 2.29 2.26 1.88 1.74 1.44 1.24 1.27 0.91 0.97 1.39 1.03 0.50 0.21 0.21 0.22 0.17 0.20 0.21 0.21 0.24 0.22 0.29 0.20 0.09 0.04 0.07 0.17 0.12
0.86 0.77 0.64 0.68 0.77 0.74 0.81 1.03 1.65 1.89 1.95 1.77 2.16 2.86 2.43 2.34 2.38 2.59 2.61 1.96 1.63 1.12 0.44 0.45 0.56 1.26 1.47 2.17 1.71 1.34 1.52 1.04 0.82 0.96 0.90 1.17 0.63 0.36 0.13 0.09 0.11 0.15 0.19 0.23 0.25 0.26 0.27 0.42 0.17 0.10 0.13 0.17 0.17 0.15
0.88 0.71 0.66 0.66 0.70 0.77 0.89 1.15 1.49 1.00 1.16 1.07 1.71 2.07 2.53 2.43 2.07 1.61 1.24 0.90 0.68 0.52 0.34 0.44 0.74 1.43 1.35 1.72 1.75 1.48 1.39 1.26 1.22 0.88 0.69 0.88 0.66 0.28 0.20 0.16 0.13 0.16 0.21 0.28 0.26 0.24 0.26 0.28 0.26 0.22 0.22 0.22 0.22 0.25
0.70 0.68 0.73 0.61 0.61 0.69 0.77 1.00 1.04 1.03 1.28 1.42 1.22 1.31 1.48 1.19 1.24 0.79 0.55 0.51 0.58 0.43 0.39 0.52 1.07 1.63 1.37 1.79 1.73 1.25 1.59 1.41 1.16 1.64 1.12 0.64 0.36 0.22 0.19 0.21 0.24 0.25 0.24 0.29 0.33 0.33 0.29 0.29 0.28 0.27 0.29 0.38 0.40 0.54
0.55 0.60 0.78 0.83 0.88 0.96 1.21 1.46 1.84 1.71 1.54 1.25 1.08 0.93 1.15 0.87 0.64 0.60 0.67 0.89 0.54 0.66 0.69 1.07 1.25 1.52 1.55 1.58 1.30 1.00 1.19 1.11 1.07 0.95 0.77 0.60 0.45 0.35 0.31 0.30 0.27 0.38 0.42 0.44 0.50 0.48 0.53 0.58 0.74 0.90 0.96 1.05 0.86 0.96
0.61 0.82 1.07 1.08 1.14 1.20 1.36 1.57 1.63 1.29 1.14 1.20 1.03 1.10 0.70 0.98 0.83 0.80 0.67 0.49 0.39 0.70 1.24 1.45 1.48 1.33 1.14 1.56 0.94 0.72 0.81 0.89 0.78 0.98 0.78 0.70 0.58 0.54 0.58 0.63 0.65 0.75 0.81 0.89 0.97 0.90 0.99 0.96 0.82 1.06 1.19 1.08 0.86 0.85
0.62 1.27 1.28 1.19 1.20 1.11 1.27 1.29 1.27 1.22 1.22 1.16 1.17 1.02 0.80 0.79 0.85 0.72 0.58 0.48 0.54 1.26 1.42 1.42 1.37 1.07 0.81 0.51 0.51 0.50 0.59 0.97 0.84 0.69 0.72 0.66 0.73 0.87 0.92 0.96 1.03 1.05 1.00 0.99 0.97 0.87 0.85 0.80 0.70 0.78 0.82 0.75 0.72 0.55
0.89 1.50 1.28 1.04 0.91 0.89 1.01 1.09 1.08 0.91 0.91 0.85 1.09 1.20 1.06 0.92 1.05 1.06 0.85 0.69 0.71 1.20 1.32 0.92 0.83 0.79 0.75 0.36 0.30 0.39 0.72 0.99 0.94 0.95 0.89 0.86 0.93 1.06 1.09 1.01 0.98 0.82 0.72 0.69 0.64 0.61 0.63 0.61 0.42 0.30 0.34 0.44 0.36 0.33
0.84 0.88 0.78 0.65 0.58 0.72 0.61 0.45 0.65 0.52 0.53 0.84 0.89 1.17 0.84 1.02 1.02 0.90 0.90 0.82 0.91 0.98 1.00 0.99 0.77 0.54 0.64 0.59 0.74 0.92 0.98 1.07 1.03 0.93 0.95 1.05 0.96 0.96 0.95 0.82 0.84 0.67 0.54 0.52 0.43 0.41 0.39 0.32 0.24 0.27 0.25 0.23 0.19 0.23
0.89 0.89 0.95 0.64 0.43 0.61 0.67 0.49 0.30 0.37 0.71 0.74 0.77 0.61 0.54 0.69 0.64 0.64 0.53 0.50 0.42 0.31 0.31 0.37 0.40 0.52 0.73 0.87 0.95 0.94 0.91 0.70 0.71 0.70 0.75 0.85 0.83 0.81 0.81 0.72 0.65 0.58 0.43 0.36 0.25 0.24 0.28 0.26 0.28 0.25 0.21 0.16 0.19 0.22
0.93 0.69 0.62 0.63 0.63 0.63 0.56 0.39 0.16 0.20 0.53 0.63 0.57 0.32 0.31 0.45 0.33 0.18 0.10 0.06 0.06 0.11 0.18 0.33 0.74 0.98 0.99 1.07 0.78 0.74 0.70 0.58 0.42 0.40 0.60 0.73 0.73 0.59 0.62 0.49 0.44 0.38 0.30 0.29 0.28 0.26 0.22 0.23 0.24 0.19 0.18 0.17 0.17 0.18
0.81 0.51 0.23 0.31 0.71 0.54 0.34 0.36 0.30 0.19 0.29 0.38 0.33 0.16 0.26 0.14 0.13 0.13 0.09 0.05 0.13 0.25 0.61 0.86 0.86 0.99 0.72 0.66 0.59 0.51 0.57 0.50 0.51 0.33 0.34 0.44 0.51 0.34 0.40 0.44 0.33 0.26 0.23 0.28 0.27 0.29 0.25 0.21 0.18 0.15 0.14 0.16 0.16 0.14
0.40 0.20 0.16 0.22 0.40 0.50 0.30 0.07 0.21 0.23 0.11 0.17 0.16 0.11 0.16 0.17 0.13 0.09 0.10 0.14 0.42 0.70 0.71 0.61 0.59 0.46 0.32 0.36 0.37 0.27 0.35 0.28 0.31 0.35 0.36 0.32 0.36 0.38 0.44 0.45 0.31 0.32 0.31 0.28 0.23 0.21 0.17 0.15 0.11 0.10 0.11 0.13 0.11 0.10
0.08 0.12 0.16 0.09 0.20 0.14 0.18 0.10 0.11 0.12 0.12 0.12 0.10 0.12 0.11 0.12 0.10 0.08 0.12 0.23 0.62 0.80 0.51 0.26 0.27 0.20 0.25 0.33 0.20 0.20 0.22 0.19 0.25 0.33 0.36 0.34 0.34 0.33 0.28 0.26 0.23 0.19 0.16 0.13 0.07 0.06 0.06 0.03 0.04 0.08 0.11 0.12 0.15 0.16
0.11 0.17 0.17 0.25 0.15 0.11 0.10 0.10 0.03 0.05 0.07 0.06 0.07 0.08 0.09 0.08 0.05 0.06 0.14 0.31 0.61 0.46 0.27 0.29 0.19 0.17 0.20 0.19 0.22 0.28 0.32 0.25 0.22 0.24 0.24 0.16 0.16 0.16 0.09 0.08 0.06 0.05 0.03 0.03 0.01 0.05 0.05 0.06 0.05 0.09 0.11 0.11 0.14 0.12
0.25 0.19 0.21 0.31 0.14 0.08 0.05 0.06 0.04 0.04 0.05 0.04 0.06 0.08 0.07 0.06 0.07 0.06 0.11 0.35 0.35 0.33 0.34 0.31 0.24 0.22 0.25 0.30 0.30 0.27 0.18 0.11 0.09 0.10 0.12 0.07 0.07 0.12 0.10 0.06 0.05 0.04 0.04 0.10 0.13 0.11 0.09 0.08 0.09 0.09 0.10 0.11 0.10 0.10
0.27 0.17 0.06 0.12 0.12 0.06 0.07 0.06 0.06 0.04 0.05 0.08 0.11 0.11 0.09 0.12 0.10 0.13 0.22 0.33 0.26 0.31 0.37 0.37 0.34 0.25 0.24 0.18 0.16 0.13 0.09 0.03 0.02 0.02 0.05 0.02 0.02 0.05 0.08 0.10 0.11 0.11 0.04 0.05 0.06 0.10 0.12 0.09 0.08 0.08 0.12 0.12 0.12 0.13
0.28 0.21 0.08 0.06 0.09 0.07 0.07 0.07 0.05 0.06 0.10 0.11 0.14 0.13 0.15 0.15 0.14 0.29 0.41 0.31 0.30 0.33 0.27 0.25 0.17 0.15 0.14 0.12 0.09 0.07 0.03 0.01 0.01 0.01 0.01 0.00 0.01 0.02 0.05 0.08 0.09 0.07 0.03 0.04 0.03 0.04 0.07 0.10 0.11 0.11 0.11 0.15 0.14 0.12
0.33 0.17 0.14 0.08 0.05 0.07 0.13 0.14 0.13 0.15 0.18 0.14 0.14 0.13 0.11 0.14 0.41 0.51 0.48 0.43 0.31 0.19 0.15 0.16 0.14 0.07 0.05 0.07 0.09 0.07 0.06 0.05 0.03 0.02 0.04 0.08 0.06 0.05 0.03 0.04 0.03 0.01 0.04 0.04 0.04 0.03 0.05 0.08 0.10 0.13 0.13 0.11 0.11 0.12
0.34 0.18 0.10 0.10 0.13 0.15 0.16 0.19 0.23 0.22 0.18 0.16 0.16 0.23 0.27 0.33 0.50 0.53 0.43 0.32 0.25 0.15 0.11 0.12 0.21 0.11 0.09 0.09 0.07 0.04 0.03 0.03 0.05 0.10 0.08 0.11 0.16 0.16 0.11 0.09 0.04 0.03 0.05 0.09 0.12 0.08 0.09 0.11 0.13 0.11 0.11 0.14 0.15 0.20
0.14 0.16 0.19 0.12 0.16 0.31 0.50 0.37 0.43 0.26 0.09 0.09 0.13 0.20 0.31 0.63 0.84 0.52 0.34 0.28 0.24 0.21 0.16 0.13 0.15 0.11 0.12 0.11 0.12 0.14 0.12 0.07 0.08 0.09 0.11 0.09 0.09 0.10 0.10 0.08 0.06 0.06 0.07 0.09 0.13 0.22 0.23 0.18 0.19 0.22 0.24 0.26 0.28 0.26
0.20 0.27 0.32 0.24 0.35 0.47 0.35 0.19 0.16 0.16 0.12 0.11 0.11 0.17 0.38 0.59 0.51 0.40 0.34 0.31 0.22 0.16 0.12 0.14 0.14 0.10 0.07 0.07 0.07 0.07 0.13 0.12 0.08 0.07 0.10 0.07 0.07 0.08 0.08 0.07 0.07 0.07 0.07 0.06 0.06 0.07 0.09 0.11 0.13 0.12 0.10 0.09 0.09 0.10
0.19 0.29 0.29 0.27 0.34 0.30 0.26 0.21 0.17 0.25 0.22 0.16 0.18 0.16 0.22 0.28 0.31 0.28 0.29 0.26 0.24 0.19 0.15 0.12 0.12 0.14 0.08 0.08 0.07 0.08 0.07 0.07 0.05 0.04 0.05 0.06 0.06 0.07 0.08 0.09 0.10 0.10 0.10 0.10 0.09 0.09 0.07 0.07 0.09 0.09 0.09 0.08 0.07 0.08
0.28 0.38 0.36 0.23 0.19 0.17 0.18 0.25 0.30 0.23 0.22 0.27 0.36 0.33 0.33 0.41 0.35 0.40 0.29 0.28 0.32 0.23 0.16 0.16 0.15 0.14 0.12 0.12 0.13 0.10 0.09 0.08 0.06 0.05 0.04 0.04 0.05 0.07 0.08 0.10 0.11 0.12 0.14 0.16 0.15 0.15 0.14 0.12 0.11 0.08 0.07 0.06 0.06 0.08

GFSWCAN_prec_precacc_162.txt.gz
Total_Precipitation_Accumulation
1.79 1.82 1.86 1.70 1.42 1.43 1.51 1.49 1.39 1.57 1.34 1.14 0.99 0.89 1.25 1.32 1.50 2.07 1.73 1.49 2.49 3.00 1.16 0.84 0.60 0.66 0.59 0.62 0.90 0.90 1.49 1.49 1.38 1.32 1.07 0.99 0.97 0.47 0.70 1.13 0.67 0.80 0.89 0.96 1.20 1.65 1.02 0.12 0.30 0.64 0.83 0.46 0.31 0.38
1.78 1.89 1.53 1.34 1.06 1.27 1.50 1.41 1.22 1.12 1.60 1.24 1.02 0.96 1.37 1.66 1.69 2.07 1.98 1.39 1.91 2.88 1.59 0.83 0.51 0.43 0.35 0.34 0.47 0.72 1.06 1.11 1.31 1.13 0.71 0.64 0.67 0.60 0.68 0.91 0.88 1.45 1.19 1.27 1.00 0.97 0.56 0.30 0.43 0.49 0.41 0.42 0.44 0.60
1.54 1.78 1.41 1.12 1.06 1.08 1.29 1.25 1.25 1.01 1.18 1.24 1.04 1.05 1.63 1.99 1.86 2.14 1.91 1.45 3.02 3.42 2.12 1.06 0.73 0.36 0.27 0.35 0.33 0.83 0.50 0.75 1.21 1.10 1.39 1.07 0.87 0.49 0.49 0.73 0.70 0.59 0.56 0.99 0.96 0.67 0.39 0.53 0.44 0.25 0.25 0.28 0.30 0.31
1.47 1.78 1.34 1.03 1.21 1.11 1.09 0.79 0.93 1.09 0.98 1.26 1.54 1.47 1.80 2.03 1.95 2.52 2.45 1.99 3.34 2.68 2.35 1.39 0.87 0.50 0.39 0.58 0.34 0.39 0.34 0.38 0.71 1.06 1.63 1.42 0.97 0.76 0.67 0.67 0.60 0.50 0.75 0.71 1.03 0.97 0.70 0.66 0.94 0.62 0.44 0.32 0.32 0.33
1.52 1.42 1.19 1.33 1.27 0.89 0.85 0.54 0.60 0.85 0.82 1.25 1.59 1.78 2.12 2.36 2.31 3.33 3.07 2.68 2.48 2.25 2.14 1.70 0.80 0.70 0.45 0.79 0.50 0.57 0.55 0.60 1.04 1.15 1.18 0.83 0.61 0.94 0.89 0.85 0.52 0.39 0.97 0.95 0.91 1.14 1.28 1.36 0.89 0.72 0.81 0.61 0.44 0.22
1.49 1.09 1.42 1.70 1.22 0.80 0.58 0.54 0.56 0.65 0.79 1.23 1.50 1.83 2.35 2.63 3.64 5.79 6.98 3.99 2.25 2.12 2.66 2.06 1.07 0.76 0.69 1.12 1.04 0.63 0.95 1.01 1.37 1.71 0.95 0.48 0.46 1.13 1.08 1.09 0.67 0.46 0.47 0.65 0.99 1.04 1.08 0.97 0.61 0.38 0.29 0.34 0.34 0.24
1.41 1.53 1.87 1.66 1.08 0.62 0.44 0.53 0.53 0.67 0.95 1.20 1.36 1.61 1.96 2.20 2.84 3.93 3.19 1.93 1.62 2.50 3.79 2.47 1.54 1.03 1.08 1.60 1.89 1.61 1.48 1.80 2.03 2.02 1.20 0.61 0.53 0.92 1.11 0.93 0.63 0.42 0.52 0.52 0.69 0.61 0.41 0.33 0.27 0.16 0.07 0.05 0.04 0.04
2.00 1.97 1.56 1.17 0.75 0.76 0.45 0.60 0.69 0.83 1.09 1.19 1.48 1.65 1.99 2.43 3.00 2.59 1.76 1.81 1.86 2.95 2.55 1.86 1.54 1.78 1.49 2.13 2.49 2.02 2.33 2.50 2.25 1.92 1.20 0.77 0.84 1.28 1.27 0.66 0.37 0.27 0.41 0.37 0.38 0.29 0.20 0.13 0.08 0.05 0.04 0.12 0.21 0.18
2.30 1.59 1.02 0.96 0.76 0.80 0.51 0.74 0.93 1.09 1.28 1.78 2.14 2.81 4.00 3.43 3.03 1.95 1.65 2.33 2.35 2.11 1.61 0.75 1.09 2.46 2.27 2.17 2.09 1.75 1.97 2.30 1.70 1.15 0.84 1.10 1.41 1.42 0.80 0.35 0.31 0.25 0.30 0.32 0.22 0.12 0.08 0.09 0.06 0.05 0.02 0.03 0.25 0.36
1.52 1.06 0.72 0.79 0.77 0.94 0.84 1.05 1.36 1.43 1.95 2.29 2.72 3.52 3.73 2.35 1.96 2.18 3.18 3.47 3.44 2.03 1.22 0.73 0.62 1.62 2.30 2.30 1.88 1.75 1.44 1.24 1.27 0.91 0.97 1.39 1.03 0.50 0.21 0.21 0.22 0.17 0.20 0.21 0.21 0.24 0.22 0.31 0.21 0.09 0.05 0.07 0.18 0.16
0.86 0.77 0.68 0.76 0.81 0.81 0.84 1.06 1.69 2.01 2.04 1.80 2.16 2.87 2.43 2.35 2.38 2.60 2.62 1.96 1.63 1.12 0.44 0.45 0.56 1.26 1.47 2.17 1.72 1.36 1.55 1.05 0.83 0.96 0.91 1.17 0.64 0.36 0.13 0.09 0.11 0.15 0.19 0.23 0.25 0.26 0.27 0.44 0.18 0.11 0.14 0.20 0.22 0.16
0.90 0.71 0.71 0.75 0.74 0.80 0.99 1.25 1.54 1.04 1.18 1.07 1.71 2.08 2.54 2.44 2.08 1.63 1.26 0.90 0.68 0.52 0.34 0.44 0.74 1.43 1.36 1.73 1.75 1.49 1.40 1.27 1.24 0.90 0.71 0.88 0.67 0.29 0.20 0.16 0.13 0.16 0.21 0.28 0.26 0.24 0.26 0.28 0.26 0.23 0.23 0.22 0.23 0.25
0.72 0.69 0.76 0.64 0.63 0.73 0.82 1.04 1.07 1.04 1.28 1.42 1.22 1.32 1.48 1.19 1.27 0.80 0.55 0.51 0.58 0.44 0.41 0.53 1.07 1.64 1.37 1.79 1.73 1.26 1.60 1.43 1.17 1.65 1.12 0.64 0.40 0.29 0.19 0.21 0.24 0.25 0.24 0.29 0.33 0.33 0.29 0.29 0.28 0.30 0.31 0.38 0.41 0.54
0.56 0.60 0.78 0.83 0.89 0.97 1.22 1.46 1.84 1.71 1.54 1.25 1.08 0.94 1.15 0.88 0.64 0.60 0.67 0.89 0.55 0.67 0.71 1.08 1.26 1.53 1.55 1.58 1.30 1.00 1.19 1.11 1.07 0.95 0.82 0.72 0.49 0.35 0.31 0.30 0.27 0.38 0.42 0.44 0.50 0.49 0.54 0.58 0.74 0.90 0.97 1.05 0.86 0.96
0.61 0.83 1.08 1.09 1.14 1.20 1.36 1.57 1.63 1.29 1.14 1.20 1.04 1.10 0.70 0.98 0.83 0.80 0.67 0.50 0.42 0.71 1.24 1.45 1.48 1.33 1.14 1.56 0.94 0.72 0.81 0.89 0.78 0.99 0.89 0.74 0.58 0.54 0.58 0.63 0.65 0.75 0.81 0.89 0.97 0.90 1.00 0.96 0.82 1.06 1.19 1.08 0.86 0.85
0.62 1.27 1.28 1.20 1.21 1.11 1.27 1.29 1.27 1.22 1.23 1.20 1.17 1.02 0.80 0.79 0.85 0.72 0.58 0.48 0.55 1.26 1.42 1.42 1.37 1.08 0.83 0.51 0.51 0.50 0.59 0.97 0.86 0.71 0.73 0.66 0.73 0.87 0.92 0.96 1.03 1.05 1.00 0.99 0.97 0.87 0.86 0.81 0.71 0.78 0.82 0.75 0.72 0.55
0.90 1.56 1.28 1.04 0.92 0.90 1.01 1.09 1.09 0.91 0.94 0.85 1.09 1.20 1.06 0.92 1.05 1.06 0.85 0.69 0.71 1.20 1.32 0.92 0.83 0.79 0.77 0.37 0.30 0.39 0.72 0.99 0.94 0.95 0.89 0.86 0.93 1.06 1.09 1.01 0.98 0.82 0.72 0.69 0.64 0.62 0.64 0.61 0.43 0.31 0.35 0.45 0.36 0.33
0.86 0.89 0.80 0.65 0.58 0.72 0.61 0.45 0.65 0.52 0.53 0.84 0.89 1.17 0.84 1.02 1.02 0.90 0.90 0.82 0.91 0.99 1.00 0.99 0.77 0.54 0.66 0.65 0.81 0.98 1.03 1.08 1.03 0.93 0.95 1.05 0.96 0.96 0.95 0.82 0.84 0.67 0.54 0.52 0.43 0.42 0.39 0.32 0.25 0.28 0.26 0.23 0.19 0.23
0.91 0.90 0.95 0.65 0.43 0.61 0.67 0.49 0.30 0.37 0.71 0.74 0.77 0.61 0.54 0.69 0.64 0.64 0.53 0.50 0.43 0.32 0.31 0.37 0.40 0.52 0.74 0.87 0.96 0.97 0.94 0.72 0.72 0.70 0.75 0.85 0.83 0.81 0.81 0.72 0.65 0.58 0.43 0.36 0.25 0.24 0.28 0.27 0.29 0.25 0.21 0.16 0.19 0.22
0.93 0.70 0.62 0.63 0.63 0.63 0.56 0.39 0.16 0.20 0.53 0.63 0.57 0.32 0.31 0.45 0.33 0.18 0.10 0.06 0.06 0.12 0.19 0.33 0.74 0.98 0.99 1.08 0.78 0.75 0.74 0.59 0.43 0.41 0.60 0.73 0.73 0.59 0.62 0.49 0.44 0.38 0.30 0.29 0.28 0.26 0.22 0.23 0.24 0.19 0.18 0.17 0.17 0.18
0.81 0.52 0.24 0.32 0.71 0.55 0.34 0.38 0.31 0.19 0.29 0.38 0.33 0.16 0.26 0.14 0.13 0.13 0.09 0.05 0.13 0.25 0.61 0.86 0.86 0.99 0.72 0.67 0.59 0.51 0.57 0.51 0.52 0.33 0.34 0.44 0.51 0.34 0.40 0.44 0.33 0.26 0.23 0.28 0.27 0.29 0.25 0.21 0.18 0.15 0.14 0.16 0.16 0.14
0.45 0.20 0.16 0.23 0.41 0.51 0.30 0.07 0.26 0.32 0.11 0.17 0.17 0.12 0.16 0.18 0.14 0.10 0.11 0.14 0.42 0.70 0.71 0.61 0.59 0.46 0.32 0.37 0.38 0.28 0.36 0.28 0.31 0.35 0.36 0.32 0.36 0.38 0.44 0.45 0.31 0.32 0.31 0.28 0.23 0.21 0.17 0.15 0.11 0.10 0.11 0.13 0.11 0.10
0.13 0.15 0.17 0.09 0.21 0.16 0.18 0.10 0.11 0.12 0.12 0.13 0.11 0.13 0.11 0.13 0.12 0.10 0.13 0.24 0.62 0.80 0.51 0.26 0.27 0.20 0.25 0.33 0.20 0.20 0.22 0.19 0.25 0.33 0.36 0.34 0.34 0.33 0.28 0.26 0.23 0.19 0.16 0.13 0.07 0.06 0.06 0.03 0.04 0.08 0.11 0.13 0.15 0.17
0.14 0.19 0.21 0.29 0.16 0.11 0.10 0.10 0.03 0.05 0.07 0.06 0.07 0.08 0.09 0.08 0.05 0.06 0.14 0.31 0.61 0.46 0.27 0.30 0.19 0.17 0.20 0.19 0.22 0.28 0.32 0.25 0.22 0.24 0.24 0.16 0.16 0.16 0.09 0.08 0.06 0.05 0.03 0.03 0.01 0.05 0.05 0.06 0.05 0.10 0.11 0.12 0.15 0.13
0.31 0.22 0.23 0.33 0.17 0.08 0.05 0.06 0.04 0.04 0.05 0.04 0.06 0.08 0.07 0.06 0.07 0.06 0.11 0.35 0.35 0.34 0.34 0.31 0.24 0.22 0.25 0.31 0.31 0.27 0.18 0.11 0.09 0.10 0.12 0.07 0.07 0.12 0.10 0.06 0.05 0.04 0.04 0.10 0.13 0.11 0.11 0.09 0.10 0.10 0.10 0.11 0.10 0.11
0.31 0.18 0.06 0.13 0.14 0.07 0.08 0.06 0.06 0.04 0.05 0.08 0.11 0.11 0.09 0.12 0.10 0.13 0.22 0.33 0.26 0.31 0.37 0.37 0.34 0.25 0.24 0.18 0.16 0.13 0.09 0.03 0.02 0.02 0.05 0.02 0.02 0.05 0.08 0.10 0.11 0.11 0.04 0.05 0.06 0.11 0.13 0.11 0.10 0.10 0.12 0.12 0.12 0.13
0.32 0.24 0.11 0.08 0.10 0.09 0.08 0.07 0.05 0.07 0.10 0.12 0.14 0.13 0.15 0.15 0.14 0.29 0.42 0.31 0.30 0.33 0.27 0.25 0.17 0.15 0.14 0.12 0.09 0.07 0.03 0.01 0.01 0.01 0.01 0.00 0.01 0.02 0.05 0.08 0.09 0.07 0.03 0.04 0.04 0.05 0.07 0.10 0.12 0.13 0.13 0.16 0.15 0.12
0.38 0.17 0.14 0.08 0.05 0.07 0.14 0.14 0.13 0.15 0.18 0.15 0.14 0.13 0.11 0.15 0.41 0.53 0.53 0.47 0.32 0.19 0.15 0.16 0.14 0.07 0.05 0.07 0.09 0.07 0.06 0.05 0.03 0.02 0.04 0.08 0.06 0.05 0.05 0.05 0.03 0.01 0.04 0.04 0.04 0.04 0.06 0.08 0.12 0.15 0.16 0.13 0.12 0.13
0.36 0.18 0.10 0.11 0.15 0.18 0.21 0.23 0.26 0.23 0.19 0.17 0.17 0.26 0.31 0.35 0.53 0.59 0.54 0.49 0.33 0.15 0.11 0.12 0.21 0.11 0.09 0.09 0.07 0.04 0.03 0.03 0.05 0.10 0.08 0.11 0.16 0.16 0.12 0.09 0.05 0.03 0.05 0.09 0.12 0.08 0.10 0.12 0.14 0.14 0.14 0.16 0.16 0.22
0.14 0.16 0.20 0.13 0.18 0.39 0.59 0.42 0.45 0.28 0.13 0.13 0.15 0.28 0.42 0.75 0.99 0.65 0.46 0.41 0.33 0.24 0.17 0.13 0.15 0.11 0.12 0.11 0.13 0.16 0.13 0.07 0.08 0.10 0.12 0.10 0.10 0.10 0.11 0.08 0.06 0.06 0.07 0.09 0.13 0.22 0.24 0.19 0.21 0.24 0.27 0.28 0.32 0.30
0.21 0.27 0.33 0.25 0.35 0.47 0.35 0.19 0.16 0.16 0.13 0.12 0.13 0.22 0.43 0.65 0.56 0.45 0.42 0.38 0.27 0.18 0.13 0.15 0.14 0.10 0.07 0.07 0.07 0.08 0.14 0.12 0.08 0.07 0.10 0.08 0.07 0.09 0.09 0.07 0.07 0.07 0.07 0.07 0.07 0.08 0.10 0.13 0.15 0.14 0.12 0.11 0.12 0.13
0.19 0.29 0.30 0.28 0.34 0.30 0.26 0.21 0.17 0.25 0.22 0.16 0.20 0.21 0.30 0.36 0.35 0.30 0.33 0.29 0.25 0.20 0.16 0.13 0.14 0.16 0.10 0.09 0.08 0.08 0.08 0.07 0.05 0.04 0.05 0.06 0.06 0.07 0.08 0.10 0.10 0.10 0.10 0.11 0.11 0.10 0.09 0.09 0.11 0.11 0.11 0.10 0.08 0.09
0.28 0.39 0.37 0.24 0.19 0.17 0.18 0.25 0.30 0.24 0.23 0.28 0.40 0.46 0.50 0.47 0.39 0.44 0.31 0.29 0.34 0.25 0.18 0.18 0.19 0.16 0.12 0.12 0.13 0.10 0.09 0.08 0.06 0.05 0.04 0.05 0.05 0.07 0.08 0.10 0.11 0.12 0.14 0.16 0.16 0.15 0.15 0.14 0.14 0.11 0.09 0.08 0.07 0.09

GFSWCAN_prec_precacc_165.txt.gz
Total_Precipitation_Accumulation
1.79 1.82 1.86 1.70 1.42 1.43 1.51 1.49 1.39 1.57 1.34 1.14 0.99 0.89 1.25 1.32 1.50 2.07 1.73 1.49 2.49 3.00 1.17 0.85 0.60 0.66 0.59 0.62 0.91 0.91 1.49 1.50 1.40 1.35 1.10 1.00 0.97 0.47 0.70 1.13 0.67 0.80 0.89 0.96 1.20 1.65 1.02 0.12 0.30 0.64 0.83 0.46 0.31 0.38
1.78 1.89 1.53 1.34 1.06 1.27 1.50 1.41 1.22 1.12 1.60 1.24 1.02 0.96 1.37 1.66 1.69 2.07 1.98 1.39 1.91 2.88 1.59 0.83 0.51 0.43 0.35 0.34 0.47 0.72 1.06 1.11 1.31 1.13 0.71 0.64 0.67 0.60 0.68 0.91 0.88 1.45 1.19 1.27 1.00 0.97 0.56 0.30 0.43 0.49 0.41 0.42 0.44 0.60
1.55 1.78 1.41 1.12 1.06 1.08 1.29 1.25 1.25 1.01 1.18 1.24 1.04 1.05 1.63 1.99 1.86 2.14 1.91 1.45 3.02 3.42 2.12 1.06 0.73 0.36 0.27 0.35 0.33 0.83 0.50 0.75 1.21 1.10 1.39 1.07 0.87 0.49 0.49 0.73 0.70 0.59 0.56 0.99 0.96 0.67 0.39 0.53 0.44 0.25 0.25 0.28 0.30 0.31
1.48 1.79 1.35 1.03 1.21 1.12 1.09 0.79 0.93 1.09 0.98 1.26 1.54 1.47 1.80 2.03 1.95 2.52 2.45 1.99 3.34 2.68 2.35 1.39 0.87 0.50 0.39 0.58 0.34 0.39 0.34 0.38 0.71 1.06 1.63 1.42 0.97 0.76 0.67 0.67 0.60 0.50 0.75 0.71 1.03 0.97 0.70 0.66 0.94 0.62 0.44 0.32 0.32 0.33
1.53 1.44 1.19 1.33 1.28 0.90 0.85 0.54 0.60 0.85 0.82 1.25 1.59 1.78 2.12 2.36 2.31 3.33 3.07 2.68 2.48 2.25 2.14 1.70 0.80 0.70 0.45 0.79 0.50 0.57 0.55 0.60 1.04 1.15 1.18 0.83 0.61 0.94 0.89 0.85 0.52 0.39 0.97 0.95 0.91 1.14 1.28 1.36 0.89 0.72 0.81 0.61 0.44 0.22
1.50 1.12 1.43 1.70 1.22 0.81 0.59 0.54 0.56 0.65 0.79 1.23 1.50 1.83 2.35 2.63 3.64 5.79 6.98 3.99 2.25 2.12 2.66 2.06 1.07 0.76 0.69 1.12 1.04 0.63 0.95 1.01 1.37 1.71 0.95 0.48 0.46 1.13 1.08 1.09 0.67 0.46 0.47 0.65 0.99 1.04 1.08 0.97 0.61 0.38 0.29 0.34 0.34 0.24
1.41 1.56 1.89 1.67 1.09 0.62 0.44 0.53 0.53 0.67 0.95 1.20 1.36 1.61 1.96 2.20 2.84 3.93 3.19 1.93 1.62 2.50 3.79 2.47 1.54 1.03 1.08 1.60 1.89 1.61 1.48 1.80 2.03 2.02 1.20 0.61 0.53 0.92 1.11 0.93 0.63 0.42 0.52 0.52 0.69 0.61 0.41 0.33 0.27 0.16 0.07 0.05 0.04 0.04
2.02 2.03 1.60 1.20 0.76 0.77 0.46 0.61 0.70 0.83 1.09 1.19 1.48 1.65 1.99 2.43 3.00 2.59 1.76 1.81 1.86 2.95 2.55 1.86 1.54 1.78 1.49 2.13 2.49 2.02 2.33 2.50 2.25 1.92 1.20 0.77 0.84 1.28 1.27 0.66 0.37 0.27 0.41 0.37 0.38 0.29 0.20 0.13 0.08 0.05 0.04 0.12 0.21 0.18
2.37 1.66 1.05 1.04 0.79 0.80 0.51 0.74 0.94 1.10 1.28 1.78 2.14 2.81 4.00 3.43 3.03 1.95 1.65 2.33 2.35 2.11 1.61 0.75 1.09 2.46 2.27 2.17 2.09 1.75 1.97 2.30 1.70 1.15 0.84 1.10 1.41 1.42 0.80 0.35 0.31 0.25 0.30 0.32 0.22 0.12 0.08 0.09 0.06 0.05 0.02 0.03 0.25 0.36
1.54 1.07 0.73 0.84 0.80 0.94 0.84 1.06 1.38 1.44 1.95 2.29 2.72 3.52 3.73 2.35 1.96 2.18 3.18 3.47 3.44 2.03 1.22 0.73 0.62 1.62 2.30 2.30 1.88 1.75 1.44 1.24 1.27 0.91 0.97 1.39 1.03 0.50 0.21 0.21 0.22 0.17 0.20 0.21 0.21 0.24 0.22 0.31 0.21 0.09 0.05 0.08 0.18 0.16
0.86 0.77 0.69 0.77 0.85 0.85 0.86 1.08 1.72 2.02 2.04 1.80 2.16 2.87 2.44 2.35 2.38 2.60 2.62 1.96 1.63 1.12 0.44 0.45 0.56 1.26 1.47 2.17 1.72 1.36 1.55 1.05 0.83 0.96 0.91 1.17 0.64 0.36 0.13 0.09 0.11 0.16 0.19 0.23 0.25 0.26 0.27 0.44 0.18 0.13 0.23 0.29 0.23 0.16
0.91 0.76 0.78 0.78 0.84 0.89 1.03 1.27 1.56 1.05 1.18 1.07 1.71 2.08 2.54 2.44 2.08 1.63 1.26 0.90 0.68 0.52 0.34 0.44 0.74 1.43 1.36 1.73 1.75 1.49 1.41 1.27 1.24 0.92 0.73 0.88 0.67 0.29 0.20 0.16 0.13 0.16 0.21 0.28 0.26 0.24 0.26 0.28 0.26 0.24 0.25 0.23 0.23 0.26
0.76 0.73 0.77 0.68 0.76 0.83 0.87 1.08 1.09 1.06 1.28 1.42 1.22 1.32 1.48 1.19 1.27 0.80 0.55 0.51 0.58 0.44 0.41 0.54 1.07 1.64 1.38 1.80 1.74 1.26 1.60 1.44 1.20 1.67 1.13 0.64 0.41 0.31 0.19 0.21 0.24 0.25 0.24 0.29 0.33 0.33 0.29 0.29 0.28 0.30 0.32 0.39 0.41 0.54
0.57 0.60 0.79 0.85 0.93 1.04 1.27 1.49 1.85 1.71 1.54 1.25 1.08 0.94 1.15 0.88 0.64 0.60 0.67 0.89 0.55 0.68 0.72 1.08 1.26 1.53 1.56 1.60 1.30 1.00 1.19 1.11 1.08 0.95 0.84 0.74 0.49 0.35 0.31 0.30 0.27 0.38 0.42 0.44 0.50 0.49 0.54 0.58 0.74 0.91 0.97 1.05 0.86 0.96
0.61 0.84 1.08 1.09 1.15 1.23 1.38 1.58 1.63 1.29 1.14 1.20 1.04 1.10 0.70 0.98 0.83 0.80 0.67 0.51 0.43 0.71 1.25 1.45 1.48 1.33 1.14 1.58 0.94 0.72 0.81 0.89 0.78 1.00 0.98 0.74 0.58 0.54 0.58 0.63 0.65 0.75 0.81 0.89 0.97 0.91 1.00 0.96 0.83 1.07 1.19 1.08 0.86 0.85
0.62 1.27 1.28 1.21 1.21 1.11 1.27 1.29 1.27 1.22 1.23 1.20 1.17 1.02 0.80 0.79 0.85 0.72 0.58 0.49 0.55 1.26 1.42 1.42 1.37 1.08 0.83 0.52 0.52 0.50 0.59 0.97 0.86 0.72 0.73 0.66 0.73 0.87 0.92 0.96 1.03 1.05 1.00 0.99 0.97 0.87 0.86 0.81 0.72 0.80 0.83 0.76 0.72 0.55
0.90 1.56 1.29 1.06 0.93 0.91 1.01 1.09 1.09 0.91 0.94 0.85 1.09 1.20 1.06 0.92 1.05 1.06 0.85 0.69 0.71 1.20 1.32 0.92 0.83 0.79 0.78 0.38 0.30 0.39 0.72 0.99 0.94 0.95 0.89 0.86 0.93 1.06 1.09 1.01 0.98 0.83 0.72 0.69 0.65 0.62 0.64 0.62 0.43 0.31 0.35 0.46 0.37 0.33
0.86 0.89 0.80 0.66 0.58 0.72 0.61 0.45 0.65 0.52 0.53 0.84 0.89 1.17 0.84 1.02 1.02 0.90 0.90 0.82 0.91 0.99 1.01 0.99 0.77 0.54 0.68 0.79 0.95 1.07 1.12 1.12 1.03 0.93 0.95 1.05 0.96 0.96 0.95 0.82 0.84 0.68 0.54 0.52 0.44 0.42 0.40 0.34 0.26 0.30 0.29 0.26 0.21 0.23
0.91 0.90 0.96 0.65 0.43 0.61 0.67 0.49 0.30 0.37 0.71 0.74 0.77 0.61 0.54 0.69 0.64 0.64 0.53 0.50 0.43 0.33 0.35 0.38 0.40 0.52 0.74 0.88 0.96 0.97 0.94 0.72 0.72 0.70 0.75 0.85 0.83 0.81 0.82 0.73 0.65 0.58 0.43 0.36 0.25 0.24 0.28 0.27 0.29 0.26 0.22 0.18 0.21 0.23
0.93 0.70 0.62 0.63 0.63 0.63 0.56 0.39 0.16 0.20 0.53 0.63 0.57 0.32 0.31 0.45 0.33 0.18 0.10 0.06 0.07 0.15 0.22 0.33 0.74 0.98 0.99 1.08 0.78 0.75 0.75 0.59 0.43 0.41 0.60 0.73 0.73 0.59 0.62 0.49 0.44 0.38 0.30 0.29 0.28 0.26 0.23 0.24 0.24 0.19 0.18 0.17 0.18 0.19
0.81 0.52 0.25 0.32 0.71 0.55 0.34 0.38 0.31 0.19 0.29 0.38 0.33 0.17 0.26 0.14 0.13 0.13 0.09 0.05 0.13 0.26 0.61 0.86 0.86 0.99 0.72 0.67 0.59 0.51 0.57 0.51 0.52 0.33 0.34 0.44 0.51 0.34 0.40 0.44 0.33 0.26 0.23 0.28 0.27 0.29 0.25 0.21 0.18 0.15 0.15 0.16 0.16 0.14
0.46 0.20 0.18 0.24 0.41 0.51 0.30 0.07 0.29 0.36 0.12 0.17 0.17 0.13 0.16 0.18 0.14 0.10 0.11 0.15 0.42 0.70 0.71 0.61 0.59 0.46 0.32 0.37 0.38 0.28 0.36 0.28 0.31 0.35 0.36 0.32 0.36 0.38 0.44 0.45 0.31 0.32 0.31 0.28 0.23 0.21 0.17 0.15 0.11 0.10 0.11 0.14 0.11 0.10
0.18 0.16 0.17 0.09 0.21 0.16 0.18 0.10 0.11 0.13 0.12 0.13 0.12 0.15 0.11 0.14 0.14 0.10 0.13 0.24 0.62 0.80 0.51 0.26 0.27 0.20 0.25 0.33 0.20 0.20 0.22 0.19 0.25 0.33 0.36 0.34 0.34 0.33 0.28 0.26 0.23 0.19 0.16 0.13 0.07 0.06 0.06 0.04 0.04 0.08 0.11 0.13 0.16 0.18
0.20 0.23 0.25 0.32 0.17 0.11 0.10 0.10 0.03 0.05 0.07 0.06 0.07 0.08 0.09 0.09 0.06 0.07 0.14 0.31 0.61 0.46 0.27 0.30 0.19 0.17 0.20 0.19 0.22 0.28 0.32 0.25 0.22 0.24 0.24 0.16 0.16 0.16 0.09 0.08 0.06 0.05 0.03 0.03 0.01 0.05 0.05 0.07 0.06 0.10 0.12 0.12 0.15 0.13
0.37 0.26 0.23 0.33 0.18 0.08 0.05 0.06 0.04 0.04 0.05 0.04 0.07 0.08 0.07 0.06 0.07 0.06 0.11 0.35 0.35 0.34 0.34 0.31 0.24 0.22 0.25 0.31 0.31 0.27 0.18 0.11 0.09 0.10 0.12 0.07 0.07 0.12 0.10 0.06 0.05 0.04 0.04 0.10 0.13 0.11 0.11 0.10 0.11 0.10 0.11 0.11 0.11 0.11
0.39 0.23 0.10 0.14 0.15 0.08 0.08 0.06 0.06 0.04 0.05 0.08 0.11 0.11 0.09 0.12 0.10 0.13 0.22 0.33 0.26 0.31 0.37 0.37 0.34 0.25 0.24 0.18 0.16 0.13 0.09 0.03 0.02 0.02 0.05 0.02 0.02 0.05 0.08 0.10 0.11 0.11 0.04 0.05 0.07 0.12 0.14 0.11 0.11 0.11 0.13 0.13 0.12 0.13
0.38 0.30 0.12 0.08 0.11 0.11 0.10 0.08 0.06 0.08 0.11 0.12 0.14 0.13 0.15 0.15 0.14 0.29 0.42 0.31 0.30 0.33 0.27 0.25 0.17 0.15 0.14 0.12 0.09 0.07 0.03 0.01 0.01 0.01 0.01 0.00 0.01 0.02 0.05 0.09 0.09 0.07 0.03 0.04 0.04 0.07 0.11 0.12 0.13 0.14 0.15 0.18 0.16 0.12
0.42 0.19 0.14 0.08 0.05 0.08 0.16 0.16 0.14 0.16 0.18 0.15 0.14 0.13 0.12 0.15 0.41 0.54 0.54 0.47 0.32 0.19 0.15 0.16 0.14 0.07 0.05 0.07 0.09 0.07 0.06 0.05 0.03 0.02 0.04 0.08 0.07 0.05 0.06 0.06 0.04 0.01 0.04 0.04 0.04 0.04 0.06 0.09 0.13 0.16 0.18 0.15 0.13 0.14
0.36 0.18 0.10 0.12 0.16 0.21 0.27 0.27 0.28 0.25 0.20 0.18 0.18 0.26 0.32 0.36 0.54 0.61 0.58 0.55 0.39 0.19 0.13 0.13 0.21 0.11 0.09 0.09 0.07 0.04 0.03 0.03 0.05 0.10 0.09 0.12 0.16 0.16 0.12 0.09 0.05 0.03 0.05 0.09 0.12 0.08 0.10 0.12 0.14 0.14 0.16 0.18 0.17 0.25
0.14 0.16 0.20 0.13 0.19 0.43 0.63 0.43 0.46 0.28 0.13 0.13 0.21 0.32 0.44 0.78 1.06 0.71 0.52 0.49 0.48 0.45 0.32 0.19 0.16 0.11 0.12 0.11 0.13 0.16 0.13 0.07 0.08 0.10 0.12 0.10 0.11 0.11 0.11 0.09 0.06 0.06 0.07 0.09 0.13 0.23 0.24 0.20 0.22 0.25 0.28 0.30 0.34 0.33
0.21 0.27 0.33 0.26 0.35 0.47 0.35 0.19 0.16 0.16 0.13 0.12 0.18 0.32 0.45 0.67 0.59 0.47 0.46 0.46 0.39 0.32 0.25 0.23 0.17 0.11 0.08 0.08 0.07 0.08 0.14 0.12 0.08 0.07 0.10 0.08 0.07 0.09 0.09 0.07 0.07 0.07 0.07 0.08 0.09 0.10 0.12 0.15 0.16 0.15 0.14 0.14 0.14 0.16
0.19 0.29 0.30 0.28 0.34 0.30 0.26 0.21 0.17 0.25 0.22 0.17 0.26 0.35 0.40 0.40 0.36 0.31 0.34 0.31 0.28 0.24 0.21 0.17 0.16 0.19 0.12 0.10 0.08 0.08 0.08 0.08 0.06 0.04 0.05 0.06 0.06 0.07 0.08 0.10 0.10 0.10 0.11 0.11 0.12 0.11 0.10 0.10 0.12 0.12 0.12 0.12 0.11 0.12
0.28 0.39 0.37 0.24 0.19 0.17 0.18 0.25 0.30 0.24 0.23 0.28 0.43 0.60 0.61 0.51 0.41 0.46 0.31 0.30 0.36 0.27 0.20 0.20 0.23 0.19 0.14 0.13 0.14 0.11 0.09 0.08 0.07 0.05 0.04 0.05 0.05 0.07 0.08 0.10 0.11 0.12 0.14 0.16 0.16 0.15 0.15 0.15 0.14 0.12 0.10 0.09 0.09 0.10

GFSWCAN_prec_precacc_168.txt.gz
Total_Precipitation_Accumulation
1.79 1.82 1.86 1.70 1.42 1.43 1.51 1.49 1.39 1.57 1.35 1.14 0.99 0.89 1.26 1.35 1.53 2.12 1.77 1.52 2.53 3.11 1.37 0.98 0.65 0.70 0.67 0.69 0.97 1.03 1.57 1.59 1.49 1.41 1.14 1.03 0.97 0.47 0.70 1.13 0.67 0.81 0.91 0.99 1.24 1.67 1.03 0.12 0.30 0.64 0.83 0.46 0.31 0.38
1.78 1.89 1.53 1.34 1.06 1.27 1.50 1.41 1.22 1.12 1.60 1.24 1.02 0.96 1.37 1.66 1.69 2.07 1.98 1.39 1.92 2.89 1.67 0.88 0.56 0.46 0.38 0.37 0.50 0.74 1.08 1.13 1.33 1.15 0.72 0.64 0.67 0.60 0.68 0.91 0.88 1.45 1.19 1.27 1.00 0.97 0.56 0.30 0.43 0.49 0.41 0.42 0.44 0.60
1.55 1.78 1.41 1.12 1.06 1.08 1.29 1.25 1.25 1.01 1.18 1.24 1.04 1.05 1.63 1.99 1.86 2.14 1.91 1.45 3.02 3.42 2.13 1.07 0.75 0.36 0.27 0.35 0.33 0.84 0.50 0.75 1.21 1.10 1.40 1.07 0.87 0.49 0.49 0.73 0.70 0.59 0.56 0.99 0.96 0.67 0.39 0.53 0.44 0.25 0.25 0.28 0.30 0.31
1.49 1.79 1.35 1.03 1.21 1.12 1.09 0.79 0.93 1.09 0.98 1.26 1.54 1.47 1.80 2.03 1.95 2.52 2.45 1.99 3.34 2.68 2.35 1.39 0.87 0.50 0.39 0.58 0.34 0.39 0.34 0.38 0.71 1.06 1.63 1.42 0.97 0.76 0.67 0.67 0.60 0.50 0.75 0.71 1.03 0.97 0.70 0.66 0.94 0.62 0.44 0.32 0.32 0.33
1.54 1.44 1.19 1.33 1.28 0.90 0.85 0.54 0.60 0.85 0.82 1.25 1.59 1.78 2.12 2.36 2.31 3.33 3.07 2.68 2.48 2.25 2.14 1.70 0.80 0.70 0.45 0.79 0.50 0.57 0.55 0.60 1.04 1.15 1.18 0.83 0.61 0.94 0.89 0.85 0.52 0.39 0.97 0.95 0.91 1.14 1.28 1.36 0.89 0.72 0.81 0.61 0.44 0.22
1.51 1.13 1.43 1.70 1.22 0.81 0.59 0.54 0.56 0.65 0.79 1.23 1.50 1.83 2.35 2.63 3.64 5.79 6.98 3.99 2.25 2.12 2.66 2.06 1.07 0.76 0.69 1.12 1.04 0.63 0.95 1.01 1.37 1.71 0.95 0.48 0.46 1.13 1.08 1.09 0.67 0.46 0.47 0.65 0.99 1.04 1.08 0.97 0.61 0.38 0.29 0.34 0.34 0.24
1.43 1.58 1.90 1.68 1.09 0.62 0.44 0.53 0.53 0.67 0.95 1.20 1.36 1.61 1.96 2.20 2.84 3.93 3.19 1.93 1.62 2.50 3.79 2.47 1.54 1.03 1.08 1.60 1.89 1.61 1.48 1.80 2.03 2.02 1.20 0.61 0.53 0.92 1.11 0.93 0.63 0.42 0.52 0.52 0.69 0.61 0.41 0.33 0.27 0.16 0.07 0.05 0.04 0.04
2.04 2.07 1.62 1.21 0.77 0.77 0.46 0.61 0.70 0.83 1.09 1.19 1.48 1.65 1.99 2.43 3.00 2.59 1.76 1.81 1.86 2.95 2.55 1.86 1.54 1.78 1.49 2.13 2.49 2.02 2.33 2.50 2.25 1.92 1.20 0.77 0.84 1.28 1.27 0.66 0.37 0.27 0.41 0.37 0.38 0.29 0.20 0.13 0.08 0.05 0.04 0.12 0.21 0.18
2.42 1.72 1.10 1.09 0.81 0.81 0.51 0.74 0.94 1.10 1.28 1.78 2.14 2.81 4.00 3.43 3.03 1.95 1.65 2.33 2.35 2.11 1.61 0.75 1.09 2.46 2.27 2.17 2.09 1.75 1.97 2.30 1.70 1.15 0.84 1.10 1.41 1.42 0.80 0.35 0.31 0.25 0.30 0.32 0.22 0.12 0.08 0.09 0.06 0.05 0.02 0.03 0.25 0.36
1.60 1.08 0.78 0.96 0.83 0.95 0.85 1.07 1.38 1.44 1.95 2.29 2.72 3.52 3.73 2.35 1.96 2.18 3.18 3.47 3.44 2.03 1.22 0.73 0.62 1.62 2.30 2.30 1.88 1.75 1.44 1.24 1.27 0.91 0.97 1.39 1.03 0.50 0.21 0.21 0.22 0.17 0.20 0.21 0.21 0.24 0.22 0.31 0.21 0.09 0.05 0.08 0.18 0.16
0.86 0.77 0.70 0.86 0.89 0.87 0.88 1.09 1.72 2.02 2.04 1.80 2.16 2.87 2.44 2.36 2.38 2.60 2.62 1.96 1.63 1.12 0.44 0.45 0.56 1.26 1.47 2.17 1.72 1.36 1.55 1.05 0.83 0.96 0.91 1.17 0.64 0.36 0.13 0.09 0.11 0.16 0.19 0.23 0.25 0.26 0.27 0.44 0.18 0.13 0.23 0.29 0.23 0.16
0.92 0.78 0.80 0.81 0.86 0.92 1.06 1.28 1.56 1.05 1.18 1.07 1.71 2.08 2.54 2.45 2.08 1.63 1.26 0.90 0.68 0.52 0.34 0.44 0.74 1.43 1.36 1.73 1.75 1.49 1.41 1.28 1.24 0.92 0.73 0.88 0.67 0.29 0.20 0.16 0.13 0.16 0.21 0.28 0.26 0.24 0.26 0.28 0.26 0.24 0.25 0.23 0.23 0.26
0.78 0.76 0.81 0.82 0.88 0.90 0.89 1.08 1.09 1.06 1.28 1.42 1.22 1.32 1.48 1.19 1.27 0.80 0.55 0.51 0.58 0.44 0.41 0.54 1.07 1.64 1.38 1.80 1.74 1.26 1.60 1.44 1.22 1.70 1.13 0.64 0.41 0.31 0.19 0.21 0.24 0.25 0.24 0.29 0.33 0.33 0.29 0.29 0.28 0.30 0.32 0.39 0.41 0.54
0.58 0.62 0.91 1.07 1.04 1.11 1.31 1.50 1.85 1.71 1.54 1.25 1.08 0.94 1.15 0.89 0.64 0.60 0.67 0.89 0.55 0.68 0.72 1.09 1.26 1.53 1.57 1.60 1.31 1.00 1.19 1.12 1.09 0.96 0.84 0.74 0.49 0.35 0.31 0.30 0.27 0.38 0.42 0.44 0.50 0.49 0.54 0.58 0.74 0.91 0.97 1.05 0.86 0.96
0.62 0.84 1.10 1.12 1.16 1.24 1.38 1.58 1.63 1.29 1.14 1.20 1.04 1.10 0.70 0.98 0.83 0.80 0.67 0.52 0.43 0.72 1.25 1.45 1.48 1.33 1.14 1.58 0.94 0.72 0.81 0.89 0.79 1.00 0.99 0.75 0.58 0.54 0.58 0.63 0.65 0.75 0.81 0.89 0.97 0.91 1.00 0.97 0.83 1.07 1.19 1.08 0.86 0.85
0.62 1.27 1.29 1.21 1.21 1.11 1.28 1.29 1.28 1.22 1.23 1.20 1.17 1.02 0.80 0.79 0.85 0.72 0.58 0.49 0.55 1.26 1.42 1.42 1.37 1.08 0.83 0.52 0.53 0.50 0.59 0.97 0.86 0.72 0.73 0.66 0.73 0.87 0.92 0.96 1.03 1.05 1.00 0.99 0.97 0.87 0.86 0.82 0.73 0.82 0.84 0.76 0.72 0.55
0.90 1.56 1.29 1.06 0.93 0.91 1.01 1.09 1.09 0.91 0.94 0.85 1.09 1.20 1.06 0.92 1.05 1.06 0.85 0.69 0.71 1.20 1.32 0.92 0.83 0.79 0.81 0.40 0.32 0.39 0.72 1.00 0.94 0.95 0.89 0.86 0.93 1.06 1.09 1.01 0.99 0.83 0.73 0.70 0.65 0.62 0.65 0.62 0.44 0.32 0.37 0.46 0.37 0.34
0.86 0.89 0.80 0.66 0.58 0.72 0.61 0.45 0.65 0.52 0.53 0.84 0.89 1.17 0.84 1.02 1.02 0.90 0.90 0.82 0.91 0.99 1.01 0.99 0.77 0.54 0.70 0.94 1.01 1.08 1.13 1.18 1.04 0.93 0.95 1.05 0.96 0.96 0.95 0.82 0.84 0.68 0.54 0.53 0.44 0.42 0.40 0.34 0.27 0.31 0.30 0.28 0.23 0.26
0.91 0.90 0.96 0.65 0.43 0.61 0.67 0.49 0.30 0.37 0.71 0.74 0.77 0.61 0.54 0.69 0.64 0.64 0.53 0.50 0.43 0.33 0.41 0.41 0.40 0.52 0.74 0.88 0.96 0.97 0.94 0.73 0.72 0.70 0.75 0.85 0.83 0.81 0.82 0.73 0.66 0.58 0.43 0.36 0.25 0.24 0.28 0.28 0.29 0.26 0.23 0.18 0.22 0.25
0.93 0.70 0.62 0.63 0.63 0.63 0.56 0.39 0.16 0.20 0.53 0.63 0.57 0.32 0.31 0.45 0.33 0.18 0.10 0.06 0.07 0.15 0.26 0.34 0.74 0.98 0.99 1.08 0.78 0.75 0.75 0.59 0.44 0.42 0.60 0.73 0.73 0.59 0.62 0.49 0.44 0.38 0.30 0.29 0.28 0.26 0.23 0.24 0.24 0.19 0.18 0.17 0.18 0.20
0.81 0.52 0.26 0.32 0.71 0.55 0.34 0.38 0.31 0.19 0.29 0.38 0.33 0.18 0.27 0.14 0.13 0.13 0.09 0.05 0.13 0.26 0.61 0.86 0.86 0.99 0.72 0.67 0.59 0.51 0.57 0.51 0.52 0.33 0.34 0.44 0.51 0.34 0.40 0.44 0.33 0.26 0.23 0.28 0.27 0.29 0.25 0.21 0.18 0.15 0.15 0.16 0.16 0.15
0.47 0.20 0.19 0.24 0.41 0.51 0.30 0.07 0.29 0.36 0.12 0.17 0.17 0.13 0.17 0.18 0.15 0.10 0.12 0.16 0.42 0.70 0.71 0.61 0.59 0.46 0.32 0.37 0.38 0.28 0.36 0.28 0.31 0.35 0.36 0.32 0.36 0.38 0.44 0.45 0.31 0.32 0.31 0.28 0.23 0.21 0.17 0.15 0.11 0.10 0.12 0.14 0.12 0.11
0.20 0.17 0.17 0.09 0.21 0.16 0.18 0.10 0.11 0.13 0.12 0.13 0.12 0.16 0.11 0.14 0.15 0.11 0.14 0.24 0.62 0.80 0.51 0.26 0.27 0.20 0.25 0.33 0.20 0.20 0.22 0.19 0.25 0.33 0.36 0.34 0.34 0.33 0.28 0.26 0.23 0.19 0.16 0.13 0.07 0.06 0.06 0.04 0.05 0.08 0.11 0.14 0.16 0.18
0.27 0.32 0.29 0.34 0.17 0.11 0.10 0.10 0.03 0.05 0.07 0.06 0.08 0.08 0.09 0.09 0.07 0.08 0.14 0.31 0.61 0.46 0.27 0.30 0.19 0.17 0.20 0.19 0.22 0.28 0.32 0.25 0.22 0.24 0.24 0.16 0.16 0.16 0.09 0.08 0.06 0.05 0.03 0.03 0.01 0.05 0.05 0.07 0.07 0.12 0.13 0.13 0.16 0.14
0.42 0.28 0.24 0.34 0.19 0.08 0.06 0.06 0.04 0.04 0.05 0.04 0.07 0.08 0.07 0.06 0.07 0.06 0.11 0.35 0.35 0.34 0.34 0.31 0.24 0.22 0.25 0.31 0.31 0.27 0.18 0.11 0.09 0.10 0.12 0.07 0.07 0.12 0.10 0.06 0.05 0.04 0.04 0.10 0.13 0.11 0.11 0.10 0.11 0.11 0.11 0.12 0.11 0.11
0.45 0.29 0.15 0.16 0.16 0.09 0.08 0.06 0.06 0.04 0.05 0.08 0.11 0.11 0.09 0.12 0.10 0.13 0.22 0.33 0.26 0.31 0.37 0.37 0.34 0.25 0.24 0.18 0.16 0.13 0.09 0.03 0.02 0.02 0.05 0.02 0.02 0.05 0.08 0.10 0.11 0.11 0.04 0.05 0.08 0.14 0.16 0.13 0.12 0.12 0.15 0.14 0.13 0.14
0.40 0.32 0.14 0.08 0.11 0.12 0.11 0.09 0.06 0.08 0.12 0.12 0.15 0.13 0.15 0.15 0.14 0.29 0.42 0.31 0.31 0.33 0.27 0.25 0.17 0.15 0.14 0.12 0.09 0.07 0.03 0.01 0.01 0.01 0.01 0.00 0.01 0.02 0.05 0.09 0.09 0.08 0.03 0.04 0.04 0.07 0.11 0.14 0.14 0.15 0.15 0.18 0.17 0.14
0.44 0.19 0.14 0.09 0.05 0.08 0.17 0.17 0.16 0.18 0.20 0.17 0.16 0.14 0.12 0.15 0.41 0.54 0.55 0.48 0.32 0.19 0.15 0.16 0.14 0.07 0.05 0.07 0.09 0.07 0.06 0.05 0.03 0.02 0.04 0.09 0.07 0.05 0.06 0.07 0.04 0.02 0.04 0.04 0.04 0.04 0.06 0.10 0.13 0.17 0.19 0.16 0.13 0.15
0.36 0.18 0.10 0.12 0.17 0.25 0.31 0.30 0.31 0.28 0.21 0.19 0.20 0.28 0.33 0.36 0.55 0.62 0.58 0.56 0.40 0.20 0.14 0.14 0.22 0.11 0.09 0.09 0.07 0.04 0.03 0.03 0.05 0.10 0.09 0.12 0.16 0.16 0.12 0.09 0.05 0.03 0.05 0.09 0.12 0.08 0.10 0.13 0.15 0.15 0.16 0.18 0.18 0.26
0.14 0.16 0.20 0.13 0.19 0.45 0.65 0.43 0.46 0.29 0.13 0.13 0.22 0.33 0.45 0.79 1.06 0.72 0.53 0.50 0.49 0.47 0.36 0.24 0.23 0.16 0.14 0.12 0.13 0.16 0.13 0.07 0.08 0.10 0.12 0.10 0.11 0.11 0.12 0.09 0.06 0.07 0.08 0.09 0.14 0.23 0.25 0.21 0.23 0.26 0.28 0.30 0.35 0.34
0.21 0.27 0.34 0.26 0.36 0.47 0.35 0.19 0.16 0.16 0.13 0.12 0.18 0.34 0.47 0.68 0.61 0.49 0.47 0.48 0.42 0.35 0.29 0.31 0.29 0.24 0.18 0.14 0.08 0.08 0.14 0.13 0.08 0.08 0.11 0.08 0.07 0.09 0.09 0.07 0.07 0.08 0.08 0.08 0.10 0.11 0.13 0.16 0.17 0.16 0.15 0.15 0.16 0.18
0.19 0.29 0.30 0.28 0.34 0.30 0.26 0.21 0.17 0.25 0.22 0.17 0.27 0.42 0.49 0.46 0.40 0.32 0.35 0.32 0.30 0.26 0.25 0.24 0.26 0.30 0.20 0.14 0.09 0.09 0.09 0.09 0.06 0.05 0.06 0.06 0.06 0.07 0.09 0.10 0.10 0.10 0.11 0.12 0.12 0.11 0.11 0.11 0.13 0.13 0.13 0.13 0.12 0.13
0.28 0.39 0.37 0.24 0.19 0.17 0.18 0.25 0.30 0.24 0.23 0.29 0.45 0.66 0.67 0.55 0.46 0.49 0.34 0.32 0.39 0.29 0.23 0.23 0.27 0.24 0.18 0.15 0.15 0.12 0.10 0.08 0.07 0.05 0.04 0.05 0.05 0.07 0.08 0.10 0.11 0.13 0.15 0.16 0.16 0.16 0.16 0.16 0.15 0.12 0.11 0.10 0.09 0.10

GFSWCAN_prec_precacc_171.txt.gz
Total_Precipitation_Accumulation
1.79 1.82 1.86 1.70 1.42 1.44 1.53 1.53 1.45 1.73 1.60 1.38 1.23 1.12 1.36 1.40 1.61 2.25 1.87 1.57 2.58 3.18 1.41 0.98 0.65 0.71 0.71 0.72 1.00 1.10 1.63 1.69 1.61 1.51 1.22 1.11 1.03 0.50 0.71 1.14 0.67 0.82 0.94 1.07 1.33 1.77 1.07 0.12 0.30 0.64 0.83 0.46 0.31 0.38
1.78 1.89 1.53 1.34 1.06 1.27 1.50 1.41 1.23 1.13 1.64 1.31 1.13 1.10 1.44 1.70 1.72 2.11 2.05 1.44 1.97 3.00 1.84 0.95 0.60 0.49 0.41 0.39 0.52 0.78 1.11 1.16 1.38 1.21 0.79 0.70 0.70 0.60 0.68 0.91 0.88 1.45 1.20 1.28 1.00 0.98 0.56 0.30 0.43 0.49 0.41 0.42 0.44 0.60
1.55 1.78 1.41 1.12 1.06 1.08 1.29 1.25 1.25 1.01 1.18 1.24 1.06 1.10 1.68 2.00 1.87 2.14 1.94 1.50 3.10 3.56 2.33 1.25 0.94 0.50 0.38 0.44 0.38 0.94 0.59 0.78 1.23 1.11 1.41 1.09 0.88 0.49 0.49 0.73 0.70 0.59 0.56 0.99 0.96 0.67 0.39 0.53 0.44 0.25 0.25 0.28 0.30 0.31
1.49 1.79 1.35 1.03 1.21 1.12 1.09 0.79 0.93 1.09 0.98 1.26 1.54 1.47 1.80 2.04 1.95 2.53 2.47 2.03 3.37 2.72 2.46 1.55 0.91 0.54 0.43 0.62 0.37 0.42 0.37 0.40 0.74 1.07 1.64 1.44 0.97 0.76 0.67 0.67 0.60 0.50 0.75 0.71 1.03 0.97 0.70 0.66 0.94 0.62 0.44 0.32 0.32 0.33
1.54 1.44 1.19 1.33 1.28 0.90 0.85 0.54 0.60 0.85 0.82 1.25 1.59 1.78 2.12 2.36 2.31 3.33 3.08 2.70 2.50 2.26 2.17 1.74 0.81 0.70 0.45 0.79 0.50 0.57 0.56 0.61 1.04 1.16 1.18 0.83 0.61 0.94 0.89 0.85 0.52 0.39 0.97 0.95 0.91 1.14 1.28 1.36 0.89 0.72 0.81 0.61 0.44 0.22
1.52 1.13 1.43 1.70 1.22 0.81 0.59 0.54 0.56 0.65 0.79 1.23 1.50 1.83 2.35 2.63 3.64 5.79 6.98 3.99 2.25 2.12 2.66 2.07 1.08 0.76 0.69 1.12 1.04 0.63 0.95 1.01 1.37 1.71 0.95 0.48 0.46 1.13 1.08 1.09 0.67 0.46 0.47 0.65 0.99 1.04 1.08 0.97 0.61 0.38 0.29 0.34 0.34 0.24
1.45 1.59 1.90 1.68 1.09 0.62 0.44 0.53 0.53 0.67 0.95 1.20 1.36 1.61 1.96 2.20 2.84 3.93 3.19 1.93 1.62 2.50 3.79 2.47 1.54 1.03 1.08 1.60 1.89 1.61 1.48 1.80 2.03 2.02 1.20 0.61 0.53 0.92 1.11 0.93 0.63 0.42 0.52 0.52 0.69 0.61 0.41 0.33 0.27 0.16 0.07 0.05 0.04 0.04
2.06 2.08 1.62 1.22 0.77 0.77 0.46 0.61 0.70 0.83 1.09 1.19 1.48 1.65 1.99 2.43 3.00 2.59 1.76 1.81 1.86 2.95 2.55 1.86 1.55 1.78 1.49 2.13 2.49 2.02 2.33 2.50 2.25 1.92 1.20 0.77 0.84 1.28 1.27 0.66 0.37 0.27 0.41 0.37 0.38 0.29 0.20 0.13 0.08 0.05 0.04 0.12 0.21 0.18
2.48 1.75 1.11 1.10 0.81 0.81 0.51 0.74 0.94 1.10 1.28 1.78 2.14 2.81 4.00 3.43 3.03 1.95 1.65 2.33 2.35 2.11 1.61 0.75 1.09 2.46 2.27 2.17 2.09 1.75 1.97 2.30 1.70 1.15 0.84 1.10 1.41 1.42 0.80 0.35 0.31 0.25 0.30 0.32 0.22 0.12 0.08 0.09 0.06 0.05 0.02 0.03 0.25 0.36
1.65 1.09 0.79 0.97 0.83 0.95 0.85 1.07 1.38 1.44 1.95 2.29 2.72 3.52 3.73 2.35 1.96 2.18 3.18 3.47 3.44 2.03 1.22 0.73 0.62 1.62 2.30 2.30 1.88 1.75 1.44 1.24 1.27 0.91 0.97 1.39 1.03 0.50 0.21 0.21 0.22 0.17 0.20 0.21 0.21 0.24 0.22 0.31 0.21 0.09 0.05 0.08 0.18 0.16
0.86 0.77 0.74 0.93 0.91 0.87 0.88 1.09 1.72 2.02 2.04 1.80 2.16 2.87 2.44 2.36 2.38 2.60 2.62 1.96 1.63 1.12 0.44 0.45 0.56 1.26 1.47 2.17 1.72 1.36 1.55 1.05 0.83 0.96 0.91 1.17 0.64 0.36 0.13 0.09 0.11 0.16 0.19 0.23 0.26 0.26 0.27 0.44 0.18 0.13 0.23 0.29 0.23 0.16
0.93 0.79 0.81 0.83 0.87 0.93 1.07 1.28 1.56 1.05 1.18 1.07 1.71 2.08 2.54 2.45 2.08 1.63 1.26 0.90 0.68 0.52 0.34 0.44 0.74 1.43 1.36 1.73 1.75 1.49 1.41 1.28 1.24 0.92 0.73 0.88 0.67 0.29 0.20 0.16 0.13 0.16 0.22 0.28 0.26 0.24 0.26 0.28 0.26 0.24 0.25 0.23 0.23 0.26
0.80 0.78 0.83 0.83 0.91 0.92 0.89 1.08 1.09 1.06 1.28 1.42 1.22 1.32 1.48 1.19 1.27 0.80 0.55 0.51 0.58 0.44 0.41 0.54 1.07 1.64 1.38 1.80 1.74 1.26 1.60 1.44 1.23 1.70 1.13 0.64 0.41 0.31 0.19 0.21 0.24 0.25 0.24 0.29 0.33 0.33 0.29 0.29 0.28 0.30 0.32 0.39 0.41 0.54
0.58 0.67 1.08 1.17 1.09 1.13 1.31 1.50 1.85 1.71 1.54 1.25 1.08 0.94 1.15 0.89 0.64 0.61 0.67 0.89 0.55 0.68 0.72 1.09 1.26 1.53 1.57 1.60 1.31 1.00 1.20 1.12 1.09 0.96 0.84 0.74 0.49 0.35 0.31 0.30 0.27 0.38 0.42 0.44 0.50 0.49 0.54 0.59 0.75 0.91 0.97 1.05 0.86 0.96
0.62 0.87 1.21 1.15 1.17 1.24 1.38 1.58 1.63 1.29 1.14 1.20 1.04 1.10 0.70 0.98 0.84 0.80 0.67 0.52 0.43 0.72 1.25 1.45 1.49 1.34 1.14 1.58 0.94 0.72 0.82 0.89 0.79 1.00 0.99 0.75 0.58 0.54 0.58 0.63 0.65 0.75 0.81 0.89 0.97 0.91 1.00 0.97 0.83 1.07 1.19 1.08 0.86 0.85
0.62 1.27 1.29 1.21 1.21 1.11 1.28 1.29 1.28 1.22 1.23 1.20 1.17 1.02 0.80 0.79 0.85 0.72 0.58 0.49 0.55 1.26 1.42 1.42 1.37 1.08 0.83 0.52 0.53 0.50 0.59 0.97 0.87 0.74 0.73 0.66 0.73 0.87 0.92 0.96 1.03 1.05 1.00 0.99 0.97 0.87 0.87 0.82 0.73 0.83 0.85 0.76 0.72 0.55
0.90 1.56 1.29 1.06 0.93 0.91 1.01 1.09 1.09 0.91 0.94 0.85 1.09 1.20 1.06 0.92 1.05 1.06 0.85 0.69 0.71 1.20 1.32 0.92 0.83 0.79 0.81 0.40 0.32 0.39 0.72 1.00 0.96 0.97 0.89 0.86 0.93 1.06 1.09 1.01 0.99 0.83 0.73 0.70 0.65 0.62 0.65 0.62 0.44 0.33 0.38 0.48 0.38 0.34
0.86 0.89 0.80 0.66 0.58 0.72 0.61 0.45 0.65 0.52 0.53 0.84 0.89 1.17 0.84 1.02 1.02 0.90 0.90 0.82 0.91 0.99 1.01 0.99 0.77 0.54 0.73 1.06 1.03 1.09 1.13 1.19 1.05 0.93 0.95 1.05 0.96 0.96 0.95 0.82 0.84 0.68 0.54 0.53 0.44 0.42 0.40 0.34 0.27 0.31 0.30 0.28 0.24 0.26
0.91 0.90 0.96 0.65 0.43 0.61 0.67 0.49 0.30 0.37 0.71 0.74 0.77 0.61 0.54 0.69 0.64 0.64 0.53 0.50 0.43 0.33 0.43 0.44 0.40 0.52 0.74 0.89 0.96 0.97 0.94 0.74 0.72 0.70 0.75 0.85 0.83 0.81 0.82 0.73 0.66 0.58 0.43 0.36 0.25 0.24 0.28 0.28 0.29 0.26 0.23 0.18 0.22 0.25
0.93 0.70 0.62 0.63 0.63 0.63 0.56 0.39 0.16 0.20 0.53 0.63 0.57 0.32 0.31 0.45 0.33 0.18 0.10 0.06 0.07 0.15 0.27 0.42 0.74 0.98 0.99 1.08 0.78 0.75 0.75 0.59 0.44 0.42 0.60 0.73 0.73 0.59 0.62 0.49 0.44 0.38 0.30 0.29 0.28 0.26 0.23 0.24 0.24 0.19 0.18 0.17 0.18 0.20
0.81 0.52 0.26 0.32 0.71 0.55 0.34 0.38 0.31 0.19 0.29 0.38 0.33 0.18 0.28 0.14 0.13 0.13 0.09 0.05 0.13 0.26 0.61 0.86 0.86 0.99 0.72 0.67 0.59 0.51 0.57 0.51 0.52 0.33 0.34 0.44 0.51 0.34 0.40 0.44 0.33 0.26 0.23 0.28 0.27 0.29 0.25 0.21 0.18 0.15 0.15 0.16 0.16 0.15
0.47 0.20 0.19 0.24 0.41 0.51 0.30 0.07 0.29 0.36 0.12 0.17 0.17 0.13 0.17 0.19 0.15 0.10 0.12 0.16 0.42 0.70 0.71 0.61 0.59 0.46 0.32 0.37 0.38 0.28 0.36 0.28 0.31 0.35 0.36 0.32 0.36 0.38 0.44 0.45 0.31 0.32 0.31 0.28 0.23 0.21 0.17 0.15 0.11 0.10 0.12 0.14 0.12 0.11
0.20 0.17 0.18 0.09 0.21 0.16 0.18 0.10 0.11 0.13 0.12 0.13 0.12 0.16 0.11 0.14 0.15 0.12 0.14 0.24 0.62 0.80 0.51 0.26 0.27 0.20 0.25 0.33 0.20 0.20 0.22 0.19 0.25 0.33 0.36 0.34 0.34 0.33 0.28 0.26 0.23 0.19 0.16 0.13 0.07 0.06 0.06 0.04 0.05 0.09 0.13 0.15 0.17 0.18
0.27 0.34 0.32 0.35 0.17 0.11 0.10 0.10 0.03 0.05 0.07 0.06 0.08 0.08 0.09 0.09 0.07 0.08 0.14 0.31 0.61 0.46 0.27 0.30 0.19 0.17 0.20 0.19 0.22 0.28 0.32 0.25 0.22 0.24 0.24 0.16 0.16 0.16 0.09 0.08 0.06 0.05 0.03 0.03 0.01 0.05 0.05 0.07 0.07 0.12 0.14 0.13 0.16 0.14
0.44 0.30 0.26 0.34 0.19 0.09 0.06 0.06 0.04 0.04 0.05 0.04 0.07 0.08 0.07 0.06 0.07 0.06 0.11 0.35 0.35 0.34 0.34 0.31 0.24 0.22 0.25 0.31 0.31 0.27 0.18 0.11 0.09 0.10 0.12 0.07 0.07 0.12 0.10 0.06 0.05 0.04 0.04 0.10 0.13 0.12 0.11 0.11 0.11 0.11 0.11 0.12 0.12 0.12
0.47 0.31 0.17 0.16 0.17 0.10 0.09 0.06 0.06 0.04 0.05 0.08 0.11 0.11 0.09 0.12 0.10 0.13 0.22 0.33 0.26 0.31 0.37 0.37 0.34 0.25 0.25 0.18 0.16 0.13 0.09 0.03 0.02 0.02 0.05 0.02 0.02 0.05 0.08 0.10 0.11 0.11 0.04 0.05 0.08 0.15 0.17 0.14 0.13 0.12 0.15 0.14 0.15 0.15
0.41 0.33 0.14 0.08 0.11 0.12 0.12 0.09 0.07 0.09 0.12 0.13 0.15 0.13 0.15 0.15 0.14 0.29 0.42 0.31 0.31 0.33 0.27 0.25 0.17 0.15 0.14 0.12 0.09 0.07 0.03 0.01 0.01 0.01 0.01 0.00 0.01 0.02 0.05 0.09 0.09 0.08 0.03 0.04 0.04 0.07 0.11 0.14 0.15 0.15 0.15 0.18 0.17 0.14
0.44 0.19 0.14 0.09 0.05 0.08 0.18 0.18 0.19 0.21 0.22 0.19 0.19 0.16 0.13 0.15 0.41 0.54 0.55 0.48 0.32 0.20 0.15 0.16 0.14 0.07 0.05 0.07 0.09 0.07 0.06 0.05 0.03 0.02 0.04 0.09 0.07 0.05 0.06 0.07 0.04 0.02 0.04 0.04 0.04 0.04 0.06 0.10 0.14 0.18 0.20 0.16 0.13 0.15
0.36 0.18 0.10 0.12 0.17 0.25 0.33 0.31 0.33 0.31 0.23 0.21 0.22 0.29 0.35 0.37 0.55 0.62 0.58 0.56 0.40 0.21 0.15 0.14 0.23 0.12 0.10 0.10 0.07 0.04 0.03 0.03 0.05 0.10 0.09 0.13 0.17 0.16 0.12 0.09 0.05 0.03 0.05 0.09 0.12 0.08 0.11 0.13 0.15 0.15 0.17 0.19 0.18 0.26
0.14 0.16 0.20 0.13 0.19 0.45 0.66 0.43 0.46 0.29 0.13 0.14 0.23 0.34 0.46 0.79 1.06 0.72 0.53 0.50 0.49 0.48 0.37 0.25 0.24 0.18 0.17 0.15 0.16 0.18 0.14 0.07 0.08 0.10 0.12 0.11 0.11 0.11 0.12 0.09 0.06 0.07 0.08 0.09 0.14 0.24 0.25 0.21 0.23 0.26 0.29 0.31 0.35 0.35
0.21 0.27 0.34 0.26 0.36 0.47 0.35 0.19 0.16 0.16 0.13 0.12 0.18 0.34 0.47 0.68 0.61 0.49 0.47 0.48 0.42 0.36 0.30 0.32 0.31 0.26 0.21 0.18 0.15 0.13 0.18 0.15 0.08 0.08 0.11 0.09 0.07 0.09 0.09 0.07 0.08 0.08 0.08 0.08 0.10 0.11 0.13 0.16 0.17 0.17 0.16 0.16 0.16 0.20
0.19 0.29 0.30 0.28 0.34 0.30 0.26 0.21 0.17 0.25 0.22 0.17 0.27 0.42 0.50 0.47 0.40 0.33 0.36 0.32 0.30 0.27 0.27 0.26 0.27 0.32 0.24 0.20 0.16 0.15 0.14 0.13 0.08 0.05 0.06 0.06 0.06 0.07 0.09 0.10 0.10 0.11 0.11 0.12 0.12 0.12 0.11 0.11 0.14 0.14 0.14 0.13 0.13 0.14
0.28 0.39 0.37 0.24 0.19 0.17 0.18 0.25 0.30 0.24 0.23 0.29 0.46 0.68 0.70 0.56 0.47 0.50 0.34 0.33 0.40 0.31 0.25 0.25 0.30 0.28 0.22 0.20 0.21 0.17 0.13 0.10 0.07 0.05 0.04 0.05 0.05 0.07 0.08 0.10 0.11 0.13 0.15 0.17 0.17 0.16 0.17 0.16 0.15 0.12 0.11 0.10 0.09 0.10